CW1648 Weather Reports


time (UTC)temp
F
wind
direction
speed
knots
gust
knots
rain 1hr
in
rain 24hr
in
rain mn
in
humidity
%
barometer
mb
20260505212722 81 194 2.6 20.9 0.00 0.00 0.00 33 1005.5
20260505212622 81 181 2.6 20.9 0.00 0.00 0.00 33 1005.5
20260505212551 81 162 2.6 20.9 0.00 0.00 0.00 33 1005.5
20260505212522 81 177 2.6 20.9 0.00 0.00 0.00 33 1005.5
20260505212520 81 165 3.5 20.9 0.00 0.00 0.00 33 1005.4
20260505212421 81 192 2.6 20.9 0.00 0.00 0.00 33 1005.5
20260505212321 81 195 1.7 20.9 0.00 0.00 0.00 33 1005.5
20260505212220 81 217 2.6 20.9 0.00 0.00 0.00 33 1005.6
20260505212119 81 229 2.6 20.9 0.00 0.00 0.00 33 1005.6
20260505212050 81 220 2.6 20.9 0.00 0.00 0.00 33 1005.6
20260505212032 81 186 1.7 17.4 0.00 0.00 0.00 32 1005.6
20260505212027 81 213 2.6 20.9 0.00 0.00 0.00 32 1005.6
20260505212020 81 185 2.6 20.9 0.00 0.00 0.00 32 1005.5
20260505211816 82 219 1.7 14.8 0.00 0.00 0.00 33 1005.6
20260505211717 82 228 0.9 14.8 0.00 0.00 0.00 33 1005.6
20260505211710 81 211 1.7 14.8 0.00 0.00 0.00 33 1005.5
20260505211704 82 193 1.7 14.8 0.00 0.00 0.00 33 1005.6
20260505211553 81 198 1.7 14.8 0.00 0.00 0.00 33 1005.5
20260505211546 82 171 0.9 13.0 0.00 0.00 0.00 33 1005.6
20260505211541 81 240 1.7 14.8 0.00 0.00 0.00 32 1005.5
20260505211520 81 207 0.0 13.9 0.00 0.00 0.00 32 1005.4
20260505211111 81 190 1.7 9.6 0.00 0.00 0.00 32 1005.5
20260505211048 82 215 1.7 9.6 0.00 0.00 0.00 32 1005.6
20260505211020 81 179 0.0 18.2 0.00 0.00 0.00 32 1005.4
20260505211011 81 179 0.9 18.2 0.00 0.00 0.00 32 1005.5
20260505210925 81 198 1.7 18.2 0.00 0.00 0.00 33 1005.6
20260505210920 81 236 0.9 18.2 0.00 0.00 0.00 32 1005.6
20260505210710 81 194 1.7 18.2 0.00 0.00 0.00 32 1005.6
20260505210610 82 203 1.7 18.2 0.00 0.00 0.00 31 1005.7
20260505210547 82 242 1.7 18.2 0.00 0.00 0.00 31 1005.7
20260505210520 82 219 0.9 18.2 0.00 0.00 0.00 32 1005.5
20260505210509 82 229 1.7 18.2 0.00 0.00 0.00 32 1005.6
20260505210408 82 193 1.7 18.2 0.00 0.00 0.00 31 1005.8
20260505210307 82 213 1.7 18.2 0.00 0.00 0.00 31 1005.8
20260505210207 82 217 1.7 18.2 0.00 0.00 0.00 31 1005.7
20260505210106 82 197 1.7 18.2 0.00 0.00 0.00 31 1005.7
20260505210047 82 196 1.7 18.2 0.00 0.00 0.00 31 1005.7
20260505210020 82 235 0.0 14.8 0.00 0.00 0.00 31 1005.6
20260505210005 82 234 1.7 15.6 0.00 0.00 0.00 31 1005.7
20260505205903 82 221 1.7 15.6 0.00 0.00 0.00 32 1005.7
20260505205803 82 235 1.7 15.6 0.00 0.00 0.00 31 1005.7
20260505205727 82 189 1.7 15.6 0.00 0.00 0.00 31 1005.8
20260505205614 82 175 2.6 20.9 0.00 0.00 0.00 31 1005.8
20260505205607 82 223 2.6 20.9 0.00 0.00 0.00 31 1005.8
20260505205559 82 188 1.7 20.9 0.00 0.00 0.00 31 1005.8
20260505205520 82 197 0.0 20.9 0.00 0.00 0.00 31 1005.6
20260505205446 82 252 1.7 20.9 0.00 0.00 0.00 32 1005.8
20260505205334 81 194 1.7 20.9 0.00 0.00 0.00 31 1005.6
20260505205330 81 192 2.6 20.9 0.00 0.00 0.00 31 1005.6
20260505205324 81 211 1.7 20.9 0.00 0.00 0.00 31 1005.6
20260505205315 81 234 1.7 20.9 0.00 0.00 0.00 31 1005.6
20260505205051 81 220 1.7 20.9 0.00 0.00 0.00 31 1005.6
20260505205020 81 212 0.0 20.9 0.00 0.00 0.00 31 1005.5
20260505204610 82 174 1.7 17.4 0.00 0.00 0.00 31 1005.7
20260505204603 82 185 1.7 17.4 0.00 0.00 0.00 31 1005.7
20260505204520 82 215 2.6 17.4 0.00 0.00 0.00 32 1005.5
20260505204355 82 232 1.7 17.4 0.00 0.00 0.00 31 1005.7
20260505204254 82 180 2.6 17.4 0.00 0.00 0.00 31 1005.7
20260505204209 82 232 2.6 18.2 0.00 0.00 0.00 31 1005.7
20260505204204 82 222 2.6 18.2 0.00 0.00 0.00 31 1005.7
20260505204048 82 194 2.6 18.2 0.00 0.00 0.00 31 1005.7
20260505204020 82 228 0.0 17.4 0.00 0.00 0.00 31 1005.6
20260505203952 82 198 2.6 18.2 0.00 0.00 0.00 31 1005.8
20260505203851 82 184 2.6 18.2 0.00 0.00 0.00 31 1005.8
20260505203749 82 255 3.5 18.2 0.00 0.00 0.00 30 1005.8
20260505203649 82 213 2.6 21.7 0.00 0.00 0.00 31 1005.8
20260505203553 82 219 2.6 21.7 0.00 0.00 0.00 30 1005.7
20260505203546 82 240 2.6 21.7 0.00 0.00 0.00 30 1005.7
20260505203520 82 167 0.0 21.7 0.00 0.00 0.00 31 1005.6
20260505203510 82 250 2.6 21.7 0.00 0.00 0.00 31 1005.8
20260505203357 82 238 2.6 21.7 0.00 0.00 0.00 31 1005.7
20260505203229 82 200 1.7 21.7 0.00 0.00 0.00 31 1005.7
20260505203223 82 192 1.7 21.7 0.00 0.00 0.00 31 1005.7
20260505203213 82 230 1.7 21.7 0.00 0.00 0.00 31 1005.7
20260505203020 82 165 0.0 21.7 0.00 0.00 0.00 30 1005.5
20260505202955 82 202 1.7 21.7 0.00 0.00 0.00 30 1005.7
20260505202745 82 169 0.9 21.7 0.00 0.00 0.00 30 1005.7
20260505202646 82 207 0.9 11.3 0.00 0.00 0.00 31 1005.9
20260505202545 82 152 0.9 11.3 0.00 0.00 0.00 30 1005.7
20260505202520 82 258 0.0 11.3 0.00 0.00 0.00 30 1005.6
20260505202445 82 211 0.9 11.3 0.00 0.00 0.00 30 1005.8
20260505202343 82 246 0.9 11.3 0.00 0.00 0.00 30 1005.7
20260505202243 82 194 0.9 11.3 0.00 0.00 0.00 30 1005.8
20260505202141 82 165 1.7 12.2 0.00 0.00 0.00 31 1005.8
20260505202047 82 191 1.7 19.1 0.00 0.00 0.00 31 1005.8
20260505202040 82 182 1.7 19.1 0.00 0.00 0.00 31 1005.8
20260505202020 82 179 0.0 19.1 0.00 0.00 0.00 31 1005.5
20260505201940 82 219 1.7 19.1 0.00 0.00 0.00 31 1005.7
20260505201840 82 210 1.7 19.1 0.00 0.00 0.00 31 1005.7
20260505201738 82 178 1.7 19.1 0.00 0.00 0.00 31 1005.7
20260505201638 82 288 2.6 19.1 0.00 0.00 0.00 31 1005.7
20260505201545 82 175 2.6 19.1 0.00 0.00 0.00 31 1005.8
20260505201538 82 182 2.6 19.1 0.00 0.00 0.00 31 1005.8
20260505201520 82 176 0.0 19.1 0.00 0.00 0.00 31 1005.5
20260505201437 82 231 2.6 19.1 0.00 0.00 0.00 30 1005.7
20260505201337 82 236 2.6 19.1 0.00 0.00 0.00 31 1005.8
20260505201316 82 199 2.6 19.1 0.00 0.00 0.00 31 1005.8
20260505201235 82 167 2.6 19.1 0.00 0.00 0.00 31 1005.7
20260505201203 82 199 2.6 19.1 0.00 0.00 0.00 31 1005.8
20260505201158 82 180 1.7 19.1 0.00 0.00 0.00 30 1005.8
20260505201043 82 174 2.6 19.1 0.00 0.00 0.00 31 1005.8
20260505201020 82 207 0.0 18.2 0.00 0.00 0.00 31 1005.6
20260505200833 82 200 2.6 19.1 0.00 0.00 0.00 31 1005.8
20260505200733 82 184 2.6 19.1 0.00 0.00 0.00 30 1005.8
20260505200632 82 190 2.6 19.1 0.00 0.00 0.00 30 1005.8
20260505200545 82 188 2.6 16.5 0.00 0.00 0.00 30 1005.8
20260505200532 82 196 2.6 16.5 0.00 0.00 0.00 31 1005.8
20260505200520 82 209 0.0 13.9 0.00 0.00 0.00 31 1005.6
20260505200431 82 210 2.6 16.5 0.00 0.00 0.00 30 1005.8
20260505200349 82 194 2.6 16.5 0.00 0.00 0.00 31 1005.9
20260505200345 82 179 2.6 15.6 0.00 0.00 0.00 30 1005.9
20260505200340 82 186 2.6 16.5 0.00 0.00 0.00 30 1005.8
20260505200153 82 202 2.6 16.5 0.00 0.00 0.00 30 1005.8
20260505200030 82 164 2.6 15.6 0.00 0.00 0.00 30 1005.9
20260505200020 82 148 7.8 13.0 0.00 0.00 0.00 31 1005.7
20260505195928 82 218 2.6 13.9 0.00 0.00 0.00 30 1005.9
20260505195842 82 252 2.6 13.9 0.00 0.00 0.00 30 1005.9
20260505195837 82 191 2.6 13.9 0.00 0.00 0.00 30 1005.9
20260505195627 82 171 2.6 13.9 0.00 0.00 0.00 30 1005.9
20260505195544 82 208 2.6 13.9 0.00 0.00 0.00 31 1005.9
20260505195525 82 169 2.6 19.1 0.00 0.00 0.00 31 1005.9
20260505195520 82 259 0.0 19.1 0.00 0.00 0.00 30 1005.7
20260505195424 82 141 2.6 19.1 0.00 0.00 0.00 31 1005.9
20260505195325 82 163 2.6 19.1 0.00 0.00 0.00 31 1006.0
20260505195224 82 213 2.6 19.1 0.00 0.00 0.00 32 1006.0
20260505195123 82 238 2.6 19.1 0.00 0.00 0.00 30 1006.0
20260505195044 82 180 1.7 19.1 0.00 0.00 0.00 31 1006.0
20260505195030 82 196 1.7 19.1 0.00 0.00 0.00 31 1006.0
20260505195021 82 173 1.7 19.1 0.00 0.00 0.00 31 1006.1
20260505194910 82 187 2.6 16.5 0.00 0.00 0.00 30 1006.0
20260505194904 82 143 1.7 19.1 0.00 0.00 0.00 31 1006.0
20260505194750 82 179 1.7 19.1 0.00 0.00 0.00 30 1005.9
20260505194633 82 169 2.6 19.1 0.00 0.00 0.00 30 1006.0
20260505194550 82 218 0.9 16.5 0.00 0.00 0.00 30 1005.8
20260505194317 82 182 2.6 16.5 0.00 0.00 0.00 31 1005.9
20260505194215 82 202 2.6 16.5 0.00 0.00 0.00 31 1006.0
20260505194115 82 197 2.6 16.5 0.00 0.00 0.00 32 1006.0
20260505194044 82 213 2.6 16.5 0.00 0.00 0.00 31 1005.9
20260505194020 82 176 0.0 16.5 0.00 0.00 0.00 31 1005.8
20260505194015 82 176 2.6 16.5 0.00 0.00 0.00 31 1005.9
20260505193929 82 198 2.6 16.5 0.00 0.00 0.00 30 1006.0
20260505193924 82 232 2.6 16.5 0.00 0.00 0.00 31 1006.0
20260505193714 82 196 3.5 18.2 0.00 0.00 0.00 30 1006.0
20260505193633 82 209 1.7 18.2 0.00 0.00 0.00 30 1006.0
20260505193628 82 207 2.6 18.2 0.00 0.00 0.00 30 1006.1
20260505193620 82 178 1.7 18.2 0.00 0.00 0.00 30 1006.1
20260505193520 82 236 0.9 18.2 0.00 0.00 0.00 30 1005.8
20260505193413 82 180 1.7 20.9 0.00 0.00 0.00 30 1006.0
20260505193313 82 252 1.7 20.9 0.00 0.00 0.00 30 1006.1
20260505193212 82 212 1.7 20.9 0.00 0.00 0.00 31 1006.0
20260505193111 82 232 1.7 20.9 0.00 0.00 0.00 32 1006.1
20260505193041 82 216 1.7 20.9 0.00 0.00 0.00 32 1006.1
20260505193020 82 247 0.0 20.9 0.00 0.00 0.00 30 1005.8
20260505193010 82 240 2.6 20.9 0.00 0.00 0.00 30 1006.0
20260505192908 82 192 2.6 20.9 0.00 0.00 0.00 31 1006.1
20260505192809 82 222 2.6 20.9 0.00 0.00 0.00 30 1006.1
20260505192707 82 198 2.6 20.9 0.00 0.00 0.00 31 1006.1
20260505192636 82 205 3.5 20.9 0.00 0.00 0.00 31 1006.1
20260505192628 82 177 3.5 20.9 0.00 0.00 0.00 31 1006.1
20260505192520 82 232 0.9 20.9 0.00 0.00 0.00 31 1005.9
20260505192517 82 193 3.5 20.9 0.00 0.00 0.00 31 1006.1
20260505192325 82 180 3.5 18.2 0.00 0.00 0.00 31 1006.1
20260505192321 82 252 3.5 18.2 0.00 0.00 0.00 32 1006.2
20260505192316 82 192 3.5 18.2 0.00 0.00 0.00 32 1006.2
20260505192147 82 186 3.5 18.2 0.00 0.00 0.00 31 1006.1
20260505192020 82 211 0.0 16.5 0.00 0.00 0.00 31 1005.9
20260505192005 82 227 2.6 18.2 0.00 0.00 0.00 31 1006.1
20260505191906 82 223 2.6 15.6 0.00 0.00 0.00 31 1006.2
20260505191805 82 165 1.7 15.6 0.00 0.00 0.00 32 1006.1
20260505191717 82 215 1.7 18.2 0.00 0.00 0.00 31 1006.1
20260505191713 82 168 1.7 15.6 0.00 0.00 0.00 31 1006.1
20260505191538 83 157 1.7 18.2 0.00 0.00 0.00 31 1006.1
20260505191520 83 175 0.9 17.4 0.00 0.00 0.00 31 1006.0
20260505191516 83 182 1.7 18.2 0.00 0.00 0.00 32 1006.2
20260505191512 83 150 1.7 18.2 0.00 0.00 0.00 33 1006.2
20260505191301 83 240 1.7 18.2 0.00 0.00 0.00 33 1006.2
20260505191202 82 186 1.7 18.2 0.00 0.00 0.00 32 1006.2
20260505191101 82 240 1.7 18.2 0.00 0.00 0.00 32 1006.2
20260505191038 82 200 1.7 18.2 0.00 0.00 0.00 33 1006.2
20260505191020 82 172 1.7 17.4 0.00 0.00 0.00 33 1006.0
20260505191000 82 189 1.7 18.2 0.00 0.00 0.00 33 1006.2
20260505190859 82 234 2.6 18.2 0.00 0.00 0.00 33 1006.3
20260505190811 82 189 3.5 18.2 0.00 0.00 0.00 32 1006.2
20260505190807 82 209 2.6 18.2 0.00 0.00 0.00 32 1006.2
20260505190558 82 215 2.6 16.5 0.00 0.00 0.00 32 1006.2
20260505190538 82 199 2.6 16.5 0.00 0.00 0.00 32 1006.2
20260505190520 82 199 0.9 16.5 0.00 0.00 0.00 32 1006.1
20260505190457 82 169 2.6 16.5 0.00 0.00 0.00 32 1006.3
20260505190357 82 173 2.6 16.5 0.00 0.00 0.00 35 1006.2
20260505190256 82 255 2.6 16.5 0.00 0.00 0.00 33 1006.3
20260505190155 82 253 2.6 16.5 0.00 0.00 0.00 35 1006.3
20260505190055 82 215 2.6 16.5 0.00 0.00 0.00 33 1006.3
20260505190037 82 205 2.6 16.5 0.00 0.00 0.00 33 1006.3
20260505190020 82 178 0.0 16.5 0.00 0.00 0.00 33 1006.2
20260505185955 82 210 2.6 16.5 0.00 0.00 0.00 33 1006.4
20260505185855 83 204 1.7 16.5 0.00 0.00 0.00 33 1006.4
20260505185807 83 166 0.9 16.5 0.00 0.00 0.00 32 1006.4
20260505185803 83 173 1.7 16.5 0.00 0.00 0.00 32 1006.3
20260505185554 83 173 0.9 12.2 0.00 0.00 0.00 33 1006.5
20260505185535 83 193 0.0 12.2 0.00 0.00 0.00 34 1006.3
20260505185453 83 160 0.9 12.2 0.00 0.00 0.00 34 1006.5
20260505185352 83 220 0.9 12.2 0.00 0.00 0.00 35 1006.4
20260505185251 83 199 0.9 12.2 0.00 0.00 0.00 36 1006.4
20260505185151 83 234 0.9 12.2 0.00 0.00 0.00 36 1006.4
20260505185050 83 204 0.9 12.2 0.00 0.00 0.00 35 1006.4
20260505185035 83 194 0.9 12.2 0.00 0.00 0.00 35 1006.4
20260505185020 83 134 6.1 12.2 0.00 0.00 0.00 35 1006.2
20260505184950 83 212 0.9 12.2 0.00 0.00 0.00 35 1006.4
20260505184849 83 198 0.9 9.6 0.00 0.00 0.00 36 1006.4
20260505184801 83 173 0.9 10.4 0.00 0.00 0.00 35 1006.4
20260505184757 83 188 0.9 9.6 0.00 0.00 0.00 35 1006.4
20260505184601 83 196 0.9 10.4 0.00 0.00 0.00 36 1006.4
20260505184553 83 165 0.9 10.4 0.00 0.00 0.00 36 1006.4
20260505184550 83 203 0.0 10.4 0.00 0.00 0.00 35 1006.3
20260505184546 83 218 0.9 10.4 0.00 0.00 0.00 35 1006.5
20260505184434 83 153 0.9 10.4 0.00 0.00 0.00 34 1006.6
20260505184429 83 186 0.9 10.4 0.00 0.00 0.00 35 1006.5
20260505184316 83 175 0.9 10.4 0.00 0.00 0.00 35 1006.5
20260505184157 83 166 0.9 10.4 0.00 0.00 0.00 34 1006.6
20260505184021 83 223 0.0 10.4 0.00 0.00 0.00 34 1006.3
20260505183855 83 162 1.7 16.5 0.00 0.00 0.00 34 1006.7
20260505183851 83 186 0.9 10.4 0.00 0.00 0.00 34 1006.5
20260505183641 83 213 1.7 16.5 0.00 0.00 0.00 35 1006.6
20260505183542 82 209 1.7 16.5 0.00 0.00 0.00 34 1006.6
20260505183534 82 261 1.7 16.5 0.00 0.00 0.00 34 1006.6
20260505183521 82 195 0.0 11.3 0.00 0.00 0.00 34 1006.3
20260505183439 82 189 0.9 16.5 0.00 0.00 0.00 35 1006.5
20260505183339 82 175 0.9 16.5 0.00 0.00 0.00 34 1006.6
20260505183239 82 186 1.7 16.5 0.00 0.00 0.00 35 1006.5
20260505183138 82 173 1.7 16.5 0.00 0.00 0.00 35 1006.6
20260505183042 82 177 1.7 16.5 0.00 0.00 0.00 33 1006.7
20260505183037 82 192 1.7 16.5 0.00 0.00 0.00 33 1006.7
20260505183035 82 154 5.2 12.2 0.00 0.00 0.00 33 1006.5
20260505182936 82 200 1.7 16.5 0.00 0.00 0.00 34 1006.7
20260505182850 83 244 1.7 13.0 0.00 0.00 0.00 34 1006.6
20260505182846 82 130 1.7 16.5 0.00 0.00 0.00 33 1006.7
20260505182635 83 192 1.7 13.9 0.00 0.00 0.00 36 1006.8
20260505182536 83 205 1.7 13.9 0.00 0.00 0.00 36 1006.7
20260505182521 83 182 1.7 13.9 0.00 0.00 0.00 36 1006.5
20260505182434 83 174 1.7 13.9 0.00 0.00 0.00 34 1006.7
20260505182334 83 210 1.7 13.9 0.00 0.00 0.00 34 1006.5
20260505182233 83 186 1.7 13.9 0.00 0.00 0.00 36 1006.7
20260505182133 83 109 1.7 13.9 0.00 0.00 0.00 34 1006.7
20260505182037 83 203 1.7 13.9 0.00 0.00 0.00 33 1006.8
20260505182031 83 197 1.7 13.9 0.00 0.00 0.00 33 1006.8
20260505182020 83 155 2.6 13.9 0.00 0.00 0.00 33 1006.5
20260505181931 83 199 0.9 13.9 0.00 0.00 0.00 36 1006.7
20260505181829 83 186 0.9 13.9 0.00 0.00 0.00 34 1006.7
20260505181743 83 144 0.9 8.7 0.00 0.00 0.00 35 1006.8
20260505181739 83 210 0.9 11.3 0.00 0.00 0.00 35 1006.8
20260505181535 83 196 0.9 8.7 0.00 0.00 0.00 35 1006.7
20260505181529 83 188 0.9 8.7 0.00 0.00 0.00 35 1006.7
20260505181520 83 227 0.0 7.8 0.00 0.00 0.00 36 1006.6
20260505181428 83 165 0.9 8.7 0.00 0.00 0.00 35 1006.8
20260505181327 83 222 0.9 8.7 0.00 0.00 0.00 35 1006.8
20260505181227 83 205 0.9 8.7 0.00 0.00 0.00 37 1006.9
20260505181126 83 204 0.9 8.7 0.00 0.00 0.00 36 1006.9
20260505181034 83 269 0.9 12.2 0.00 0.00 0.00 37 1006.9
20260505181025 83 265 0.9 12.2 0.00 0.00 0.00 37 1006.9
20260505181020 83 273 0.0 12.2 0.00 0.00 0.00 37 1006.7
20260505180937 82 209 1.7 12.2 0.00 0.00 0.00 36 1006.9
20260505180933 83 189 0.9 12.2 0.00 0.00 0.00 37 1006.9
20260505180737 82 176 1.7 14.8 0.00 0.00 0.00 36 1006.9
20260505180733 82 208 1.7 14.8 0.00 0.00 0.00 35 1006.9
20260505180531 82 209 1.7 14.8 0.00 0.00 0.00 36 1007.0
20260505180523 82 194 1.7 14.8 0.00 0.00 0.00 36 1007.0
20260505180520 82 188 0.0 14.8 0.00 0.00 0.00 36 1006.8
20260505180423 82 214 1.7 14.8 0.00 0.00 0.00 35 1006.9
20260505180322 82 236 1.7 14.8 0.00 0.00 0.00 35 1006.9
20260505180222 82 194 1.7 14.8 0.00 0.00 0.00 34 1006.9
20260505180122 82 171 1.7 14.8 0.00 0.00 0.00 35 1006.9
20260505180028 83 171 1.7 14.8 0.00 0.00 0.00 34 1007.0
20260505180021 83 153 1.7 14.8 0.00 0.00 0.00 34 1007.0
20260505175920 83 211 1.7 14.8 0.00 0.00 0.00 35 1006.9
20260505175818 83 209 0.9 14.8 0.00 0.00 0.00 35 1007.0
20260505175718 83 173 0.9 12.2 0.00 0.00 0.00 35 1007.0
20260505175618 83 185 0.9 12.2 0.00 0.00 0.00 35 1007.0
20260505175528 83 180 0.0 5.2 0.00 0.00 0.00 36 1007.0
20260505175520 83 181 0.0 5.2 0.00 0.00 0.00 36 1006.8
20260505175517 83 212 0.0 5.2 0.00 0.00 0.00 36 1007.0
20260505175416 83 194 0.0 5.2 0.00 0.00 0.00 35 1007.0
20260505175316 83 209 0.0 9.6 0.00 0.00 0.00 36 1007.0
20260505175214 83 201 0.9 9.6 0.00 0.00 0.00 35 1007.0
20260505175114 83 229 0.9 9.6 0.00 0.00 0.00 35 1007.1
20260505175027 83 236 0.9 9.6 0.00 0.00 0.00 35 1007.1
20260505175020 83 233 0.0 7.0 0.00 0.00 0.00 35 1006.8
20260505175013 83 233 0.9 9.6 0.00 0.00 0.00 35 1007.0
20260505174913 83 151 0.9 9.6 0.00 0.00 0.00 35 1007.0
20260505174812 83 292 0.9 9.6 0.00 0.00 0.00 35 1007.0
20260505174711 83 190 0.9 9.6 0.00 0.00 0.00 35 1007.0
20260505174610 83 180 0.9 9.6 0.00 0.00 0.00 35 1007.0
20260505174528 83 188 0.9 13.0 0.00 0.00 0.00 34 1007.0
20260505174520 83 190 0.0 13.0 0.00 0.00 0.00 34 1006.8
20260505174510 83 190 0.9 13.0 0.00 0.00 0.00 34 1007.0
20260505174432 83 176 0.9 13.0 0.00 0.00 0.00 35 1007.1
20260505174319 83 208 0.9 13.0 0.00 0.00 0.00 34 1007.1
20260505174110 83 188 0.9 13.0 0.00 0.00 0.00 36 1007.0
20260505174025 83 220 0.9 13.0 0.00 0.00 0.00 36 1007.0
20260505174020 83 189 0.0 13.0 0.00 0.00 0.00 36 1006.8
20260505174008 83 315 0.9 13.0 0.00 0.00 0.00 36 1007.0
20260505173908 83 303 0.9 13.0 0.00 0.00 0.00 35 1007.1
20260505173808 83 236 0.9 13.0 0.00 0.00 0.00 35 1007.1
20260505173752 83 178 0.9 13.0 0.00 0.00 0.00 38 1007.0
20260505173747 83 208 0.9 8.7 0.00 0.00 0.00 37 1007.1
20260505173742 83 219 0.9 12.2 0.00 0.00 0.00 38 1007.1
20260505173737 83 235 0.9 13.0 0.00 0.00 0.00 34 1007.1
20260505173620 83 227 0.9 8.7 0.00 0.00 0.00 38 1007.0
20260505173520 83 206 0.0 8.7 0.00 0.00 0.00 38 1006.9
20260505173304 83 236 0.9 12.2 0.00 0.00 0.00 39 1007.2
20260505173213 82 300 0.9 12.2 0.00 0.00 0.00 40 1007.2
20260505173209 83 179 0.9 12.2 0.00 0.00 0.00 41 1007.2
20260505173026 82 214 0.9 13.0 0.00 0.00 0.00 37 1007.2
20260505173020 82 170 0.0 13.0 0.00 0.00 0.00 37 1007.0
20260505172959 82 265 0.9 13.0 0.00 0.00 0.00 37 1007.2
20260505172859 83 209 0.9 13.0 0.00 0.00 0.00 37 1007.2
20260505172758 83 182 0.9 13.0 0.00 0.00 0.00 36 1007.2
20260505172657 83 207 0.9 13.0 0.00 0.00 0.00 36 1007.2
20260505172557 83 187 0.9 13.0 0.00 0.00 0.00 37 1007.2
20260505172525 83 169 0.9 13.0 0.00 0.00 0.00 37 1007.2
20260505172520 83 182 0.9 13.0 0.00 0.00 0.00 37 1007.1
20260505172456 83 193 0.9 13.0 0.00 0.00 0.00 37 1007.3
20260505172356 83 227 0.9 13.0 0.00 0.00 0.00 40 1007.2
20260505172308 83 213 0.9 13.0 0.00 0.00 0.00 38 1007.2
20260505172305 83 278 0.9 13.0 0.00 0.00 0.00 39 1007.1
20260505172113 83 186 0.9 9.6 0.00 0.00 0.00 37 1007.2
20260505172108 83 183 0.9 13.0 0.00 0.00 0.00 37 1007.2
20260505172100 83 165 0.9 9.6 0.00 0.00 0.00 37 1007.2
20260505172020 83 184 0.0 9.6 0.00 0.00 0.00 37 1007.0
20260505171853 83 194 0.9 9.6 0.00 0.00 0.00 36 1007.2
20260505171752 83 259 0.9 9.6 0.00 0.00 0.00 37 1007.0
20260505171705 83 199 0.9 7.0 0.00 0.00 0.00 39 1007.2
20260505171700 83 202 0.9 7.0 0.00 0.00 0.00 41 1007.2
20260505171550 83 163 0.0 6.1 0.00 0.00 0.00 38 1007.0
20260505171525 83 212 0.9 7.0 0.00 0.00 0.00 38 1007.2
20260505171447 83 186 0.9 7.0 0.00 0.00 0.00 38 1007.2
20260505171346 83 213 0.9 6.1 0.00 0.00 0.00 39 1007.2
20260505171246 83 236 0.9 6.1 0.00 0.00 0.00 37 1007.2
20260505171145 83 153 0.9 6.1 0.00 0.00 0.00 37 1007.3
20260505171044 83 156 0.9 6.1 0.00 0.00 0.00 36 1007.2
20260505171026 83 173 0.9 6.1 0.00 0.00 0.00 38 1007.2
20260505171020 83 198 1.7 6.1 0.00 0.00 0.00 38 1006.9
20260505170944 83 194 0.0 6.1 0.00 0.00 0.00 38 1007.1
20260505170909 83 226 0.0 5.2 0.00 0.00 0.00 38 1007.2
20260505170905 83 231 0.0 5.2 0.00 0.00 0.00 37 1007.2
20260505170900 83 178 0.0 5.2 0.00 0.00 0.00 40 1007.3
20260505170541 83 196 0.0 5.2 0.00 0.00 0.00 38 1007.2
20260505170526 83 259 0.0 5.2 0.00 0.00 0.00 38 1007.2
20260505170520 83 213 0.0 5.2 0.00 0.00 0.00 38 1007.1
20260505170441 83 186 0.0 5.2 0.00 0.00 0.00 38 1007.3
20260505170353 83 221 0.0 5.2 0.00 0.00 0.00 37 1007.3
20260505170349 83 215 0.0 5.2 0.00 0.00 0.00 36 1007.2
20260505170141 83 205 0.0 5.2 0.00 0.00 0.00 37 1007.2
20260505170040 83 180 0.0 5.2 0.00 0.00 0.00 36 1007.2
20260505170025 83 178 0.0 5.2 0.00 0.00 0.00 36 1007.2
20260505170020 83 171 0.0 5.2 0.00 0.00 0.00 36 1007.0
20260505165941 83 169 0.0 5.2 0.00 0.00 0.00 36 1007.2
20260505165839 83 167 0.0 5.2 0.00 0.00 0.00 36 1007.3
20260505165738 83 192 0.0 5.2 0.00 0.00 0.00 35 1007.2
20260505165651 83 253 0.0 5.2 0.00 0.00 0.00 38 1007.3
20260505165646 83 221 0.0 5.2 0.00 0.00 0.00 36 1007.2
20260505165535 83 227 0.0 5.2 0.00 0.00 0.00 38 1007.1
20260505165525 83 212 0.0 5.2 0.00 0.00 0.00 38 1007.3
20260505165437 83 231 0.0 5.2 0.00 0.00 0.00 36 1007.3
20260505165336 83 159 0.0 5.2 0.00 0.00 0.00 39 1007.3
20260505165236 83 243 0.0 5.2 0.00 0.00 0.00 37 1007.3
20260505165135 83 184 0.0 5.2 0.00 0.00 0.00 36 1007.4
20260505165054 84 195 0.0 4.3 0.00 0.00 0.00 38 1007.3
20260505165048 84 183 0.0 4.3 0.00 0.00 0.00 35 1007.4
20260505165041 84 143 0.0 4.3 0.00 0.00 0.00 35 1007.4
20260505165020 84 176 0.9 3.5 0.00 0.00 0.00 35 1007.1
20260505164833 84 203 0.0 4.3 0.00 0.00 0.00 37 1007.4
20260505164756 84 188 0.0 4.3 0.00 0.00 0.00 35 1007.4
20260505164750 84 192 0.0 4.3 0.00 0.00 0.00 37 1007.3
20260505164741 84 224 0.0 4.3 0.00 0.00 0.00 38 1007.3
20260505164520 84 186 0.0 3.5 0.00 0.00 0.00 35 1007.2
20260505164432 84 177 0.0 4.3 0.00 0.00 0.00 37 1007.4
20260505164331 84 242 0.0 0.9 0.00 0.00 0.00 36 1007.4
20260505164231 84 246 0.0 0.9 0.00 0.00 0.00 36 1007.4
20260505164129 84 231 0.0 0.9 0.00 0.00 0.00 36 1007.4
20260505164032 84 280 0.0 0.9 0.00 0.00 0.00 36 1007.5
20260505164025 84 251 0.0 0.9 0.00 0.00 0.00 36 1007.5
20260505164020 84 238 0.0 0.9 0.00 0.00 0.00 36 1007.2
20260505163928 84 233 0.0 0.9 0.00 0.00 0.00 37 1007.4
20260505163827 84 213 0.0 1.7 0.00 0.00 0.00 37 1007.4
20260505163728 84 210 0.0 6.1 0.00 0.00 0.00 38 1007.4
20260505163627 83 198 0.0 6.1 0.00 0.00 0.00 37 1007.4
20260505163528 83 217 0.0 6.1 0.00 0.00 0.00 37 1007.4
20260505163520 84 167 0.0 6.1 0.00 0.00 0.00 37 1007.2
20260505163426 83 199 0.0 6.1 0.00 0.00 0.00 38 1007.4
20260505163325 83 193 0.0 6.1 0.00 0.00 0.00 38 1007.5
20260505163224 83 233 0.0 6.1 0.00 0.00 0.00 37 1007.4
20260505163144 83 192 0.0 7.0 0.00 0.00 0.00 40 1007.5
20260505163138 83 229 0.0 7.0 0.00 0.00 0.00 39 1007.4
20260505163129 83 202 0.0 7.0 0.00 0.00 0.00 40 1007.5
20260505163020 83 204 0.0 7.0 0.00 0.00 0.00 38 1007.3
20260505162923 83 219 0.0 7.0 0.00 0.00 0.00 37 1007.5
20260505162822 82 279 0.0 7.0 0.00 0.00 0.00 38 1007.5
20260505162750 82 163 0.0 13.0 0.00 0.00 0.00 37 1007.4
20260505162722 82 213 0.0 7.0 0.00 0.00 0.00 37 1007.4
20260505162635 82 219 0.0 13.0 0.00 0.00 0.00 37 1007.4
20260505162550 82 162 0.0 11.3 0.00 0.00 0.00 37 1007.3
20260505162520 82 163 0.0 13.0 0.00 0.00 0.00 37 1007.4
20260505162420 82 248 0.0 13.0 0.00 0.00 0.00 38 1007.4
20260505162319 82 178 0.9 13.0 0.00 0.00 0.00 37 1007.4
20260505162218 82 197 0.0 13.0 0.00 0.00 0.00 39 1007.4
20260505162133 82 201 0.0 13.0 0.00 0.00 0.00 37 1007.4
20260505162125 82 180 0.0 13.0 0.00 0.00 0.00 38 1007.4
20260505162118 82 208 0.0 13.0 0.00 0.00 0.00 38 1007.4
20260505162020 82 196 0.0 11.3 0.00 0.00 0.00 38 1007.3
20260505162005 82 217 0.0 13.0 0.00 0.00 0.00 38 1007.4
20260505161717 82 185 0.0 13.0 0.00 0.00 0.00 38 1007.4
20260505161632 82 285 0.0 3.5 0.00 0.00 0.00 37 1007.3
20260505161520 82 213 0.0 4.3 0.00 0.00 0.00 37 1007.3
20260505161516 82 205 0.0 3.5 0.00 0.00 0.00 37 1007.4
20260505161416 82 194 0.0 4.3 0.00 0.00 0.00 38 1007.4
20260505161315 82 190 0.0 4.3 0.00 0.00 0.00 38 1007.5
20260505161215 82 202 0.0 4.3 0.00 0.00 0.00 39 1007.3
20260505161113 82 216 0.0 4.3 0.00 0.00 0.00 36 1007.3
20260505161024 82 247 0.0 4.3 0.00 0.00 0.00 38 1007.3
20260505161020 82 234 0.0 4.3 0.00 0.00 0.00 38 1007.2
20260505161013 82 234 0.0 4.3 0.00 0.00 0.00 38 1007.3
20260505160912 82 178 0.0 4.3 0.00 0.00 0.00 39 1007.4
20260505160811 82 178 0.0 7.0 0.00 0.00 0.00 39 1007.4
20260505160751 82 209 0.0 7.0 0.00 0.00 0.00 38 1007.5
20260505160747 82 240 0.0 7.0 0.00 0.00 0.00 38 1007.5
20260505160741 82 127 0.0 7.0 0.00 0.00 0.00 36 1007.5
20260505160520 82 157 4.3 5.2 0.00 0.00 0.00 38 1007.4
20260505160509 82 201 0.0 7.0 0.00 0.00 0.00 38 1007.5
20260505160409 82 192 0.0 7.0 0.00 0.00 0.00 38 1007.4
20260505160312 82 204 0.0 7.0 0.00 0.00 0.00 36 1007.4
20260505160306 82 224 0.0 7.0 0.00 0.00 0.00 38 1007.5
20260505160300 82 205 0.0 7.0 0.00 0.00 0.00 36 1007.4
20260505160256 82 233 0.0 7.0 0.00 0.00 0.00 37 1007.5
20260505160251 82 244 0.0 7.8 0.00 0.00 0.00 38 1007.6
20260505160245 82 153 0.0 7.0 0.00 0.00 0.00 38 1007.5
20260505153349 81 249 0.0 1.7 0.00 0.00 0.00 38 1003.8
20260505153304 81 239 0.0 4.3 0.00 0.00 0.00 39 1003.7
20260505153258 81 177 0.0 1.7 0.00 0.00 0.00 40 1003.7
20260505153048 81 195 0.0 4.3 0.00 0.00 0.00 38 1003.7
20260505153021 81 193 0.0 4.3 0.00 0.00 0.00 37 1003.7
20260505152949 81 225 0.0 4.3 0.00 0.00 0.00 37 1003.7
20260505152848 81 215 0.0 4.3 0.00 0.00 0.00 38 1003.7
20260505152750 81 190 0.0 4.3 0.00 0.00 0.00 38 1003.6
20260505152649 82 194 0.0 4.3 0.00 0.00 0.00 38 1003.7
20260505152550 82 232 0.0 4.3 0.00 0.00 0.00 37 1003.4
20260505152519 82 229 0.0 4.3 0.00 0.00 0.00 37 1003.6
20260505152500 82 216 0.0 4.3 0.00 0.00 0.00 37 1003.5
20260505152456 82 183 0.0 4.3 0.00 0.00 0.00 37 1003.5
20260505152247 82 186 0.0 4.3 0.00 0.00 0.00 38 1003.5
20260505152147 82 194 0.0 1.7 0.00 0.00 0.00 38 1003.4
20260505152046 82 195 0.0 3.5 0.00 0.00 0.00 40 1003.4
20260505152020 81 254 0.0 3.5 0.00 0.00 0.00 40 1003.4
20260505151959 81 254 0.0 3.5 0.00 0.00 0.00 40 1003.4
20260505151954 81 247 0.0 3.5 0.00 0.00 0.00 40 1003.5
20260505151745 81 247 0.0 3.5 0.00 0.00 0.00 40 1003.4
20260505151655 81 222 0.0 3.5 0.00 0.00 0.00 39 1003.4
20260505151651 81 182 0.0 3.5 0.00 0.00 0.00 38 1003.3
20260505151520 81 246 0.0 3.5 0.00 0.00 0.00 39 1003.3
20260505151518 81 244 0.0 3.5 0.00 0.00 0.00 39 1003.4
20260505151441 81 208 0.0 3.5 0.00 0.00 0.00 39 1003.4
20260505151401 81 242 0.0 3.5 0.00 0.00 0.00 38 1003.2
20260505151248 81 202 0.0 3.5 0.00 0.00 0.00 38 1003.2
20260505151038 82 190 0.0 3.5 0.00 0.00 0.00 37 1003.3
20260505151020 82 215 0.0 3.5 0.00 0.00 0.00 37 1003.0
20260505151018 82 245 0.0 3.5 0.00 0.00 0.00 37 1003.3
20260505150938 82 235 0.0 2.6 0.00 0.00 0.00 37 1003.1
20260505150837 82 194 0.0 2.6 0.00 0.00 0.00 36 1003.1
20260505150736 82 238 0.0 2.6 0.00 0.00 0.00 37 1003.1
20260505150635 82 220 0.0 2.6 0.00 0.00 0.00 37 1003.1
20260505150535 82 258 0.0 0.9 0.00 0.00 0.00 37 1003.1
20260505150520 82 201 0.0 0.0 0.00 0.00 0.00 37 1003.0
20260505150517 82 227 0.0 0.9 0.00 0.00 0.00 37 1003.1
20260505150434 82 213 0.0 0.0 0.00 0.00 0.00 38 1003.1
20260505150332 82 242 0.0 0.0 0.00 0.00 0.00 38 1003.1
20260505150231 82 248 0.0 0.0 0.00 0.00 0.00 37 1003.2
20260505150144 82 240 0.0 0.0 0.00 0.00 0.00 39 1003.3
20260505150140 82 229 0.0 0.0 0.00 0.00 0.00 39 1003.3
20260505140520 76 290 0.0 2.6 0.00 0.00 0.00 46 1004.2
20260505140456 76 296 0.0 2.6 0.00 0.00 0.00 45 1004.2
20260505140356 76 242 0.0 2.6 0.00 0.00 0.00 45 1004.2
20260505140253 76 194 0.0 1.7 0.00 0.00 0.00 46 1004.2
20260505140206 76 219 0.0 0.9 0.00 0.00 0.00 46 1004.3
20260505140201 76 197 0.0 1.7 0.00 0.00 0.00 47 1004.2
20260505130118 70 246 0.0 2.6 0.00 0.00 0.00 52 1006.0
20260505125019 70 228 0.0 5.2 0.00 0.00 0.00 52 1007.6
20260505124825 70 251 0.0 4.3 0.00 0.00 0.00 53 1006.8
20260505124819 70 247 0.0 3.5 0.00 0.00 0.00 53 1007.3
20260505124609 70 226 0.0 4.3 0.00 0.00 0.00 55 1006.7
20260505124519 69 262 0.0 3.5 0.00 0.00 0.00 56 1006.7
20260505124508 69 262 0.0 4.3 0.00 0.00 0.00 56 1006.8
20260505124459 69 251 0.0 4.3 0.00 0.00 0.00 56 1006.8
20260505124407 69 221 0.0 4.3 0.00 0.00 0.00 56 1006.4
20260505124358 69 245 0.0 4.3 0.00 0.00 0.00 56 1006.3
20260505124247 69 229 0.0 4.3 0.00 0.00 0.00 55 1006.6
20260505124243 69 202 0.0 4.3 0.00 0.00 0.00 54 1006.6
20260505124236 69 245 0.0 4.3 0.00 0.00 0.00 55 1006.4
20260505124118 69 252 0.0 4.3 0.00 0.00 0.00 55 1006.9
20260505124021 69 252 0.0 3.5 0.00 0.00 0.00 55 1006.8
20260505123802 69 243 0.0 4.3 0.00 0.00 0.00 54 1006.6
20260505123702 69 227 0.0 1.7 0.00 0.00 0.00 56 1006.6
20260505123606 68 265 0.0 1.7 0.00 0.00 0.00 56 1006.6
20260505123600 68 219 0.0 1.7 0.00 0.00 0.00 56 1006.5
20260505123501 68 226 0.0 1.7 0.00 0.00 0.00 56 1006.6
20260505123359 68 250 0.0 1.7 0.00 0.00 0.00 56 1006.7
20260505123259 68 202 0.0 1.7 0.00 0.00 0.00 57 1006.7
20260505123157 68 233 0.0 1.7 0.00 0.00 0.00 56 1006.8
20260505123057 68 206 0.0 1.7 0.00 0.00 0.00 55 1006.9
20260505123050 68 209 0.0 1.7 0.00 0.00 0.00 56 1007.6
20260505123003 68 205 0.0 1.7 0.00 0.00 0.00 56 1007.6
20260505122957 68 204 0.0 1.7 0.00 0.00 0.00 56 1007.6
20260505122857 68 240 0.0 0.9 0.00 0.00 0.00 56 1007.6
20260505122755 68 205 0.0 0.9 0.00 0.00 0.00 56 1007.1
20260505122655 68 223 0.0 0.9 0.00 0.00 0.00 57 1007.7
20260505122555 67 263 0.0 0.9 0.00 0.00 0.00 58 1007.0
20260505122519 67 242 0.0 0.0 0.00 0.00 0.00 58 1007.0
20260505122454 67 242 0.0 3.5 0.00 0.00 0.00 58 1007.0
20260505122353 67 230 0.0 3.5 0.00 0.00 0.00 57 1007.0
20260505122315 67 194 0.0 3.5 0.00 0.00 0.00 58 1007.1
20260505122202 67 198 0.0 3.5 0.00 0.00 0.00 57 1007.2
20260505122026 67 198 0.0 3.5 0.00 0.00 0.00 57 1007.3
20260505122019 67 197 0.0 1.7 0.00 0.00 0.00 57 1007.3
20260505121914 67 213 0.0 3.5 0.00 0.00 0.00 57 1007.3
20260505121908 67 197 0.0 3.5 0.00 0.00 0.00 57 1007.3
20260505121551 67 240 0.0 3.5 0.00 0.00 0.00 57 1007.4
20260505121520 67 188 0.0 3.5 0.00 0.00 0.00 58 1007.6
20260505121453 67 214 0.0 3.5 0.00 0.00 0.00 58 1007.6
20260505121448 67 231 0.0 3.5 0.00 0.00 0.00 58 1007.6
20260505121349 67 257 0.0 3.5 0.00 0.00 0.00 59 1007.5
20260505121248 66 222 0.0 3.5 0.00 0.00 0.00 58 1007.7
20260505121221 66 211 0.0 3.5 0.00 0.00 0.00 59 1008.1
20260505121217 66 198 0.0 3.5 0.00 0.00 0.00 58 1008.1
20260505121211 66 200 0.0 3.5 0.00 0.00 0.00 59 1008.1
20260505121054 66 196 0.0 3.5 0.00 0.00 0.00 58 1008.1
20260505121020 66 168 0.0 3.5 0.00 0.00 0.00 58 1008.1
20260505120900 66 205 0.0 3.5 0.00 0.00 0.00 58 1008.2
20260505120854 66 205 0.0 3.5 0.00 0.00 0.00 57 1008.1
20260505120713 66 222 0.0 3.5 0.00 0.00 0.00 58 1008.2
20260505120559 66 236 0.0 3.5 0.00 0.00 0.00 58 1008.1
20260505120551 66 225 0.0 0.9 0.00 0.00 0.00 58 1008.2
20260505120520 66 224 0.0 0.0 0.00 0.00 0.00 58 1008.2
20260505120358 66 236 0.0 0.9 0.00 0.00 0.00 59 1008.2
20260505120353 66 219 0.0 0.9 0.00 0.00 0.00 58 1008.2
20260505120218 66 214 0.0 1.7 0.00 0.00 0.00 59 1008.3
20260505120142 66 221 0.0 0.9 0.00 0.00 0.00 59 1008.3
20260505120100 66 215 0.0 1.7 0.00 0.00 0.00 60 1008.3
20260505120020 66 214 0.0 1.7 0.00 0.00 0.00 59 1008.3
20260505115941 66 214 0.0 1.7 0.00 0.00 0.00 59 1008.3
20260505115839 66 215 0.0 1.7 0.00 0.00 0.00 59 1008.3
20260505115739 66 221 0.0 1.7 0.00 0.00 0.00 60 1008.3
20260505115715 66 211 0.0 1.7 0.00 0.00 0.00 59 1008.3
20260505115638 66 198 0.0 1.7 0.00 0.00 0.00 59 1008.2
20260505115559 66 243 0.0 1.7 0.00 0.00 0.00 59 1008.2
20260505115520 66 191 0.0 1.7 0.00 0.00 0.00 59 1008.3
20260505115435 66 215 0.0 1.7 0.00 0.00 0.00 59 1008.3
20260505115334 66 191 0.0 1.7 0.00 0.00 0.00 60 1008.3
20260505115234 66 195 0.0 1.7 0.00 0.00 0.00 59 1008.4
20260505115133 65 199 0.0 1.7 0.00 0.00 0.00 60 1008.4
20260505115032 65 227 0.0 1.7 0.00 0.00 0.00 60 1008.4
20260505115020 66 227 0.0 1.7 0.00 0.00 0.00 60 1008.4
20260505114949 65 227 0.0 1.7 0.00 0.00 0.00 60 1008.4
20260505114931 65 188 0.0 1.7 0.00 0.00 0.00 60 1008.4
20260505114831 65 198 0.0 1.7 0.00 0.00 0.00 60 1008.4
20260505114731 65 222 0.0 1.7 0.00 0.00 0.00 61 1008.4
20260505114631 65 216 0.0 1.7 0.00 0.00 0.00 60 1008.4
20260505114530 65 217 0.0 1.7 0.00 0.00 0.00 61 1008.4
20260505114520 65 218 0.0 1.7 0.00 0.00 0.00 61 1008.4
20260505114449 65 229 0.0 1.7 0.00 0.00 0.00 63 1008.4
20260505114430 65 182 0.0 0.0 0.00 0.00 0.00 63 1008.4
20260505114329 65 212 0.0 0.0 0.00 0.00 0.00 63 1008.4
20260505114229 65 212 0.0 1.7 0.00 0.00 0.00 63 1008.4
20260505114143 65 212 0.0 1.7 0.00 0.00 0.00 62 1008.4
20260505114137 65 212 0.0 1.7 0.00 0.00 0.00 62 1008.4
20260505114020 65 212 0.0 1.7 0.00 0.00 0.00 62 1008.3
20260505113949 65 212 0.0 1.7 0.00 0.00 0.00 63 1008.3
20260505113926 65 175 0.0 1.7 0.00 0.00 0.00 63 1008.3
20260505113826 65 224 0.0 1.7 0.00 0.00 0.00 63 1008.3
20260505113752 65 224 0.0 1.7 0.00 0.00 0.00 61 1008.4
20260505113748 65 224 0.0 1.7 0.00 0.00 0.00 61 1008.4
20260505113743 65 224 0.0 1.7 0.00 0.00 0.00 62 1008.4
20260505113520 65 211 0.0 1.7 0.00 0.00 0.00 61 1008.4
20260505113447 65 217 0.0 1.7 0.00 0.00 0.00 61 1008.4
20260505113424 65 240 0.0 1.7 0.00 0.00 0.00 62 1008.4
20260505113323 65 188 0.0 1.7 0.00 0.00 0.00 64 1008.5
20260505113224 65 153 0.0 0.0 0.00 0.00 0.00 65 1008.5
20260505113124 64 153 0.0 0.0 0.00 0.00 0.00 63 1008.5
20260505113056 64 153 0.0 0.0 0.00 0.00 0.00 64 1008.4
20260505113052 64 103 0.0 0.0 0.00 0.00 0.00 64 1008.5
20260505113047 64 153 0.0 0.0 0.00 0.00 0.00 63 1008.5
20260505113038 64 153 0.0 0.0 0.00 0.00 0.00 63 1008.4
20260505113019 64 153 0.0 0.0 0.00 0.00 0.00 63 1008.4
20260505112737 64 206 0.0 0.0 0.00 0.00 0.00 64 1008.5
20260505112733 64 103 0.0 0.0 0.00 0.00 0.00 64 1008.5
20260505112524 64 206 0.0 0.0 0.00 0.00 0.00 65 1008.5
20260505112520 64 206 0.0 0.0 0.00 0.00 0.00 64 1008.4
20260505112423 64 206 0.0 0.0 0.00 0.00 0.00 64 1008.4
20260505112323 64 206 0.0 0.0 0.00 0.00 0.00 65 1008.4
20260505112223 64 206 0.0 0.0 0.00 0.00 0.00 65 1008.5
20260505112122 63 206 0.0 0.0 0.00 0.00 0.00 66 1008.4
20260505112022 63 206 0.0 0.0 0.00 0.00 0.00 67 1008.4
20260505112020 63 206 0.0 0.0 0.00 0.00 0.00 67 1008.4
20260505111947 63 206 0.0 0.0 0.00 0.00 0.00 67 1008.3
20260505111921 63 206 0.0 0.0 0.00 0.00 0.00 66 1008.3
20260505111820 63 206 0.0 0.0 0.00 0.00 0.00 66 1008.3
20260505111742 62 206 0.0 0.0 0.00 0.00 0.00 66 1008.3
20260505111719 63 206 0.0 0.0 0.00 0.00 0.00 67 1008.3
20260505111647 62 206 0.0 0.0 0.00 0.00 0.00 66 1008.3
20260505111641 62 206 0.0 0.0 0.00 0.00 0.00 67 1008.3
20260505111632 62 206 0.0 0.0 0.00 0.00 0.00 66 1008.3
20260505111520 62 206 0.0 0.0 0.00 0.00 0.00 66 1008.4
20260505111317 62 206 0.0 0.0 0.00 0.00 0.00 67 1008.2
20260505111217 62 206 0.0 0.0 0.00 0.00 0.00 67 1008.3
20260505111211 62 206 0.0 0.0 0.00 0.00 0.00 68 1008.2
20260505111115 62 206 0.0 0.0 0.00 0.00 0.00 67 1008.3
20260505111054 62 206 0.0 0.0 0.00 0.00 0.00 68 1008.3
20260505111020 62 206 0.0 0.0 0.00 0.00 0.00 68 1008.3
20260505110914 62 206 0.0 0.0 0.00 0.00 0.00 68 1008.2
20260505110813 61 206 0.0 0.0 0.00 0.00 0.00 69 1008.2
20260505110713 61 206 0.0 0.0 0.00 0.00 0.00 69 1008.2
20260505110613 61 206 0.0 0.0 0.00 0.00 0.00 69 1008.1
20260505110550 61 206 0.0 0.0 0.00 0.00 0.00 70 1008.3
20260505110511 61 206 0.0 0.0 0.00 0.00 0.00 70 1008.2
20260505110446 61 206 0.0 0.0 0.00 0.00 0.00 70 1008.2
20260505110411 60 206 0.0 0.0 0.00 0.00 0.00 70 1008.2
20260505110310 60 206 0.0 0.0 0.00 0.00 0.00 70 1008.2
20260505110209 60 206 0.0 0.0 0.00 0.00 0.00 71 1008.2
20260505110109 60 206 0.0 0.0 0.00 0.00 0.00 71 1008.2
20260505102204 58 0 0.0 0.9 0.00 0.00 0.00 71 1008.1
20260505102200 58 0 0.0 0.9 0.00 0.00 0.00 71 1008.1
20260505102020 58 360 0.0 0.9 0.00 0.00 0.00 71 1008.2
20260505101937 58 0 0.0 0.9 0.00 0.00 0.00 71 1008.1
20260505101850 58 0 0.0 0.9 0.00 0.00 0.00 71 1008.1
20260505101748 58 0 0.0 0.9 0.00 0.00 0.00 71 1008.1
20260505101658 59 0 0.0 0.9 0.00 0.00 0.00 70 1008.1
20260505101648 58 0 0.0 0.9 0.00 0.00 0.00 70 1008.1
20260505101552 58 0 0.0 0.9 0.00 0.00 0.00 70 1008.1
20260505101542 59 0 0.0 0.9 0.00 0.00 0.00 70 1008.1
20260505101519 59 360 0.0 0.9 0.00 0.00 0.00 70 1008.2
20260505101354 59 0 0.0 0.9 0.00 0.00 0.00 70 1007.9
20260505101350 59 0 0.0 0.9 0.00 0.00 0.00 70 1008.1
20260505101338 59 0 0.0 0.9 0.00 0.00 0.00 70 1007.9
20260505101333 59 0 0.0 0.9 0.00 0.00 0.00 70 1007.9
20260505101328 59 0 0.0 0.9 0.00 0.00 0.00 70 1008.0
20260505101319 59 0 0.0 0.9 0.00 0.00 0.00 70 1008.0
20260505101020 59 360 0.0 0.9 0.00 0.00 0.00 70 1008.0
20260505100745 59 0 0.0 0.0 0.00 0.00 0.00 70 1007.9
20260505100645 59 0 0.0 0.0 0.00 0.00 0.00 69 1007.9
20260505100544 59 0 0.0 0.0 0.00 0.00 0.00 69 1007.9
20260505100519 59 360 0.0 0.0 0.00 0.00 0.00 69 1008.0
20260505100430 59 0 0.0 0.0 0.00 0.00 0.00 69 1007.9
20260505100343 59 0 0.0 0.0 0.00 0.00 0.00 69 1007.9
20260505100243 59 0 0.0 0.0 0.00 0.00 0.00 69 1007.9
20260505100142 59 0 0.0 0.0 0.00 0.00 0.00 69 1007.9
20260505100040 59 0 0.0 0.0 0.00 0.00 0.00 69 1007.9
20260505100020 59 360 0.0 0.0 0.00 0.00 0.00 69 1008.0
20260505095932 59 0 0.0 0.0 0.00 0.00 0.00 69 1007.9
20260505095927 59 0 0.0 0.0 0.00 0.00 0.00 69 1007.9
20260505095923 60 0 0.0 0.0 0.00 0.00 0.00 69 1007.9
20260505095917 59 0 0.0 0.0 0.00 0.00 0.00 69 1007.9
20260505095804 59 0 0.0 0.0 0.00 0.00 0.00 69 1007.9
20260505095536 60 0 0.0 0.0 0.00 0.00 0.00 69 1007.9
20260505095520 60 360 0.0 0.0 0.00 0.00 0.00 69 1008.0
20260505095359 60 0 0.0 0.0 0.00 0.00 0.00 69 1007.9
20260505095245 60 0 0.0 0.0 0.00 0.00 0.00 69 1007.8
20260505095036 60 0 0.0 0.0 0.00 0.00 0.00 68 1007.8
20260505095020 60 360 0.0 0.0 0.00 0.00 0.00 68 1007.9
20260505094926 60 0 0.0 0.0 0.00 0.00 0.00 68 1007.8
20260505094835 60 0 0.0 0.0 0.00 0.00 0.00 68 1007.8
20260505094734 60 0 0.0 0.0 0.00 0.00 0.00 68 1007.8
20260505094634 60 0 0.0 0.0 0.00 0.00 0.00 68 1007.7
20260505094546 60 0 0.0 0.0 0.00 0.00 0.00 68 1007.7
20260505094542 60 0 0.0 0.0 0.00 0.00 0.00 68 1007.7
20260505094520 60 360 0.0 0.0 0.00 0.00 0.00 68 1007.8
20260505094425 60 0 0.0 0.0 0.00 0.00 0.00 68 1007.7
20260505094331 60 0 0.0 0.0 0.00 0.00 0.00 68 1007.7
20260505094231 60 0 0.0 0.0 0.00 0.00 0.00 68 1007.7
20260505094129 60 0 0.0 0.0 0.00 0.00 0.00 68 1007.7
20260505094035 60 360 0.0 0.0 0.00 0.00 0.00 68 1007.8
20260505094030 60 0 0.0 0.0 0.00 0.00 0.00 68 1007.7
20260505093925 60 0 0.0 0.0 0.00 0.00 0.00 68 1007.7
20260505093850 60 0 0.0 0.0 0.00 0.00 0.00 68 1007.7
20260505093737 60 0 0.0 0.0 0.00 0.00 0.00 68 1007.7
20260505093535 60 360 0.0 0.0 0.00 0.00 0.00 68 1007.9
20260505093528 60 0 0.0 0.0 0.00 0.00 0.00 68 1007.7
20260505093423 60 0 0.0 2.6 0.00 0.00 0.00 68 1007.8
20260505093327 60 0 0.0 2.6 0.00 0.00 0.00 68 1007.7
20260505093226 60 0 0.0 2.6 0.00 0.00 0.00 68 1007.7
20260505093126 60 0 0.0 2.6 0.00 0.00 0.00 68 1007.8
20260505093025 60 0 0.0 2.6 0.00 0.00 0.00 68 1007.7
20260505093020 60 360 0.0 2.6 0.00 0.00 0.00 68 1007.8
20260505092922 60 0 0.0 2.6 0.00 0.00 0.00 68 1007.7
20260505092838 60 0 0.0 2.6 0.00 0.00 0.00 68 1007.8
20260505092834 60 0 0.0 2.6 0.00 0.00 0.00 68 1007.8
20260505092637 60 0 0.0 2.6 0.00 0.00 0.00 68 1007.8
20260505092633 60 0 0.0 2.6 0.00 0.00 0.00 68 1007.7
20260505092520 60 360 0.0 2.6 0.00 0.00 0.00 68 1007.8
20260505092426 60 0 0.0 0.9 0.00 0.00 0.00 68 1007.7
20260505092418 60 0 0.0 0.9 0.00 0.00 0.00 68 1007.7
20260505092414 60 0 0.0 0.9 0.00 0.00 0.00 68 1007.6
20260505092407 60 0 0.0 0.0 0.00 0.00 0.00 68 1007.7
20260505092254 60 0 0.0 0.0 0.00 0.00 0.00 68 1007.7
20260505092020 60 360 0.0 0.0 0.00 0.00 0.00 68 1007.7
20260505091922 60 0 0.0 0.9 0.00 0.00 0.00 68 1007.6
20260505091820 60 0 0.0 0.9 0.00 0.00 0.00 68 1007.7
20260505091720 60 0 0.0 0.9 0.00 0.00 0.00 68 1007.7
20260505091619 60 0 0.0 0.9 0.00 0.00 0.00 68 1007.7
20260505091520 60 360 0.0 0.0 0.00 0.00 0.00 68 1007.8
20260505091418 60 0 0.0 0.9 0.00 0.00 0.00 68 1007.7
20260505091337 60 0 0.0 0.9 0.00 0.00 0.00 68 1007.7
20260505091224 60 0 0.0 0.9 0.00 0.00 0.00 68 1007.7
20260505091020 60 360 0.0 0.0 0.00 0.00 0.00 68 1007.7
20260505091015 60 0 0.0 0.0 0.00 0.00 0.00 68 1007.7
20260505090914 60 0 0.0 0.0 0.00 0.00 0.00 68 1007.6
20260505090814 60 0 0.0 0.0 0.00 0.00 0.00 68 1007.7
20260505090715 60 0 0.0 0.0 0.00 0.00 0.00 68 1007.6
20260505090614 60 0 0.0 0.0 0.00 0.00 0.00 68 1007.6
20260505090534 60 360 0.0 0.0 0.00 0.00 0.00 68 1007.7
20260505090514 60 0 0.0 0.0 0.00 0.00 0.00 68 1007.6
20260505090413 60 0 0.0 0.0 0.00 0.00 0.00 68 1007.6
20260505090311 60 0 0.0 0.0 0.00 0.00 0.00 68 1007.6
20260505090211 60 0 0.0 0.0 0.00 0.00 0.00 68 1007.5
20260505090110 60 0 0.0 1.7 0.00 0.00 0.00 68 1007.5
20260505090101 60 0 0.0 3.5 0.00 0.00 0.00 68 1007.5
20260505090020 60 360 0.0 3.5 0.00 0.00 0.00 68 1007.6
20260505085942 60 0 0.0 3.5 0.00 0.00 0.00 68 1007.5
20260505085721 60 0 0.0 3.5 0.00 0.00 0.00 68 1007.4
20260505085716 60 0 0.0 3.5 0.00 0.00 0.00 68 1007.5
20260505085550 60 360 0.0 3.5 0.00 0.00 0.00 67 1007.5
20260505085526 60 0 0.0 3.5 0.00 0.00 0.00 67 1007.4
20260505085404 60 0 0.0 3.5 0.00 0.00 0.00 68 1007.4
20260505085304 60 0 0.0 3.5 0.00 0.00 0.00 67 1007.5
20260505085201 60 0 0.0 3.5 0.00 0.00 0.00 68 1007.5
20260505085100 60 0 0.0 3.5 0.00 0.00 0.00 67 1007.5
20260505085020 60 360 0.0 0.9 0.00 0.00 0.00 67 1007.5
20260505085000 60 0 0.0 0.9 0.00 0.00 0.00 67 1007.4
20260505084917 60 0 0.0 0.0 0.00 0.00 0.00 67 1007.4
20260505084900 60 0 0.0 0.0 0.00 0.00 0.00 67 1007.4
20260505084758 60 0 0.0 0.0 0.00 0.00 0.00 67 1007.4
20260505084658 60 0 0.0 0.0 0.00 0.00 0.00 67 1007.4
20260505084559 60 0 0.0 0.0 0.00 0.00 0.00 67 1007.4
20260505084520 60 360 0.0 0.0 0.00 0.00 0.00 67 1007.5
20260505084438 60 0 0.0 0.0 0.00 0.00 0.00 67 1007.5
20260505084434 60 0 0.0 0.0 0.00 0.00 0.00 67 1007.4
20260505084428 60 0 0.0 0.0 0.00 0.00 0.00 67 1007.5
20260505084314 60 0 0.0 0.0 0.00 0.00 0.00 67 1007.5
20260505084021 60 360 0.0 0.0 0.00 0.00 0.00 66 1007.6
20260505083955 60 0 0.0 0.0 0.00 0.00 0.00 66 1007.5
20260505083914 60 0 0.0 0.0 0.00 0.00 0.00 66 1007.5
20260505083909 60 0 0.0 0.0 0.00 0.00 0.00 66 1007.5
20260505083904 60 0 0.0 0.0 0.00 0.00 0.00 66 1007.5
20260505083654 60 0 0.0 0.0 0.00 0.00 0.00 66 1007.5
20260505083553 60 0 0.0 0.0 0.00 0.00 0.00 66 1007.5
20260505083519 61 360 0.0 0.0 0.00 0.00 0.00 66 1007.6
20260505083451 60 0 0.0 0.0 0.00 0.00 0.00 66 1007.5
20260505083414 60 0 0.0 0.0 0.00 0.00 0.00 66 1007.5
20260505083404 61 0 0.0 0.0 0.00 0.00 0.00 66 1007.6
20260505083400 61 0 0.0 0.0 0.00 0.00 0.00 66 1007.6
20260505083149 61 0 0.0 0.0 0.00 0.00 0.00 66 1007.6
20260505083050 61 0 0.0 0.0 0.00 0.00 0.00 65 1007.6
20260505083020 61 360 0.0 0.0 0.00 0.00 0.00 65 1007.7
20260505082949 61 0 0.0 0.0 0.00 0.00 0.00 65 1007.6
20260505082914 61 0 0.0 0.0 0.00 0.00 0.00 65 1007.6
20260505082847 61 0 0.0 0.0 0.00 0.00 0.00 65 1007.6
20260505082746 61 0 0.0 0.0 0.00 0.00 0.00 65 1007.6
20260505082646 61 0 0.0 0.0 0.00 0.00 0.00 65 1007.6
20260505082546 61 0 0.0 0.0 0.00 0.00 0.00 65 1007.6
20260505082520 61 360 0.0 0.0 0.00 0.00 0.00 65 1007.8
20260505082445 61 0 0.0 0.0 0.00 0.00 0.00 65 1007.7
20260505082413 61 0 0.0 0.0 0.00 0.00 0.00 65 1007.7
20260505082346 61 0 0.0 0.0 0.00 0.00 0.00 65 1007.6
20260505082304 61 0 0.0 0.0 0.00 0.00 0.00 65 1007.7
20260505082257 61 0 0.0 0.0 0.00 0.00 0.00 65 1007.6
20260505082137 61 0 0.0 0.0 0.00 0.00 0.00 65 1007.7
20260505082130 61 0 0.0 0.0 0.00 0.00 0.00 65 1007.7
20260505082051 61 360 0.0 0.0 0.00 0.00 0.00 65 1007.8
20260505081845 61 0 0.0 0.0 0.00 0.00 0.00 65 1007.7
20260505081744 61 0 0.0 0.0 0.00 0.00 0.00 65 1007.6
20260505081644 61 0 0.0 0.0 0.00 0.00 0.00 65 1007.6
20260505081556 61 0 0.0 0.0 0.00 0.00 0.00 64 1007.7
20260505081550 61 0 0.0 0.0 0.00 0.00 0.00 64 1007.6
20260505081535 61 360 0.0 0.0 0.00 0.00 0.00 64 1007.8
20260505081413 61 0 0.0 0.0 0.00 0.00 0.00 64 1007.6
20260505081338 61 0 0.0 0.0 0.00 0.00 0.00 64 1007.6
20260505081314 61 0 0.0 0.0 0.00 0.00 0.00 64 1007.6
20260505081309 61 0 0.0 0.0 0.00 0.00 0.00 64 1007.6
20260505081155 61 0 0.0 0.0 0.00 0.00 0.00 64 1007.6
20260505081020 61 360 0.0 0.0 0.00 0.00 0.00 64 1007.8
20260505080909 62 0 0.0 0.0 0.00 0.00 0.00 64 1007.7
20260505080837 62 0 0.0 0.0 0.00 0.00 0.00 64 1007.7
20260505080736 62 0 0.0 0.0 0.00 0.00 0.00 64 1007.7
20260505080636 62 0 0.0 0.0 0.00 0.00 0.00 64 1007.6
20260505080626 62 0 0.0 0.0 0.00 0.00 0.00 63 1007.6
20260505080535 62 0 0.0 0.0 0.00 0.00 0.00 63 1007.6
20260505080515 62 0 0.0 0.0 0.00 0.00 0.00 63 1007.6
20260505080335 62 0 0.0 0.0 0.00 0.00 0.00 63 1007.6
20260505080235 62 0 0.0 0.0 0.00 0.00 0.00 63 1007.6
20260505080134 62 0 0.0 0.0 0.00 0.00 0.00 63 1007.6
20260505080103 62 0 0.0 0.0 0.00 0.00 0.00 63 1007.6
20260505080059 62 0 0.0 0.0 0.00 0.00 0.00 63 1007.6
20260505080053 62 0 0.0 0.0 0.00 0.00 0.00 63 1007.6
20260505080020 62 360 0.0 0.0 0.00 0.00 0.00 63 1007.7
20260505075936 62 0 0.0 0.0 0.00 0.00 0.00 63 1007.6
20260505075728 62 0 0.0 0.0 0.00 0.00 0.00 63 1007.6
20260505075626 62 0 0.0 0.0 0.00 0.00 0.00 63 1007.5
20260505075527 62 0 0.0 0.0 0.00 0.00 0.00 63 1007.6
20260505075520 62 360 0.0 0.0 0.00 0.00 0.00 63 1007.7
20260505075409 62 0 0.0 0.0 0.00 0.00 0.00 63 1007.6
20260505075341 62 0 0.0 0.0 0.00 0.00 0.00 63 1007.6
20260505075335 62 0 0.0 0.0 0.00 0.00 0.00 63 1007.6
20260505075126 62 0 0.0 0.0 0.00 0.00 0.00 63 1007.6
20260505075025 62 0 0.0 0.0 0.00 0.00 0.00 63 1007.6
20260505075020 62 360 0.0 0.0 0.00 0.00 0.00 63 1007.7
20260505074925 62 0 0.0 0.0 0.00 0.00 0.00 63 1007.6
20260505074907 62 0 0.0 0.0 0.00 0.00 0.00 62 1007.7
20260505074825 62 0 0.0 0.0 0.00 0.00 0.00 62 1007.7
20260505074724 62 0 0.0 0.0 0.00 0.00 0.00 62 1007.7
20260505074624 62 0 0.0 0.0 0.00 0.00 0.00 62 1007.7
20260505074538 62 0 0.0 0.0 0.00 0.00 0.00 63 1007.7
20260505074532 62 0 0.0 0.0 0.00 0.00 0.00 62 1007.7
20260505074519 62 360 0.0 0.0 0.00 0.00 0.00 62 1007.8
20260505074405 62 0 0.0 0.0 0.00 0.00 0.00 62 1007.7
20260505074322 62 0 0.0 0.0 0.00 0.00 0.00 62 1007.7
20260505074237 62 0 0.0 0.0 0.00 0.00 0.00 62 1007.7
20260505074232 62 0 0.0 0.0 0.00 0.00 0.00 62 1007.7
20260505074022 62 0 0.0 0.0 0.00 0.00 0.00 62 1007.6
20260505074020 62 360 0.0 0.0 0.00 0.00 0.00 62 1007.8
20260505073922 62 0 0.0 0.0 0.00 0.00 0.00 62 1007.7
20260505073905 62 0 0.0 0.0 0.00 0.00 0.00 62 1007.6
20260505073821 62 0 0.0 0.0 0.00 0.00 0.00 62 1007.6
20260505073721 62 0 0.0 0.0 0.00 0.00 0.00 62 1007.7
20260505073620 62 0 0.0 0.0 0.00 0.00 0.00 62 1007.7
20260505073535 62 360 0.0 0.0 0.00 0.00 0.00 62 1007.7
20260505073520 62 0 0.0 0.0 0.00 0.00 0.00 62 1007.6
20260505073403 62 0 0.0 0.0 0.00 0.00 0.00 62 1007.6
20260505073334 62 0 0.0 0.0 0.00 0.00 0.00 62 1007.6
20260505073328 62 0 0.0 0.0 0.00 0.00 0.00 62 1007.6
20260505073118 62 0 0.0 0.0 0.00 0.00 0.00 62 1007.6
20260505073020 62 360 0.0 0.0 0.00 0.00 0.00 62 1007.7
20260505073018 62 0 0.0 0.0 0.00 0.00 0.00 62 1007.6
20260505072903 62 0 0.0 0.0 0.00 0.00 0.00 62 1007.6
20260505072817 62 0 0.0 0.0 0.00 0.00 0.00 61 1007.6
20260505072738 62 0 0.0 0.0 0.00 0.00 0.00 62 1007.6
20260505072624 62 0 0.0 0.0 0.00 0.00 0.00 61 1007.7
20260505072520 62 360 0.0 0.0 0.00 0.00 0.00 61 1007.7
20260505072403 62 0 0.0 0.0 0.00 0.00 0.00 61 1007.6
20260505072314 62 0 0.0 0.0 0.00 0.00 0.00 61 1007.6
20260505072214 62 0 0.0 0.0 0.00 0.00 0.00 61 1007.6
20260505072113 62 0 0.0 0.0 0.00 0.00 0.00 61 1007.6
20260505072035 62 360 0.0 0.0 0.00 0.00 0.00 61 1007.7
20260505072027 62 0 0.0 0.0 0.00 0.00 0.00 61 1007.6
20260505072022 62 0 0.0 0.0 0.00 0.00 0.00 61 1007.6
20260505071901 62 0 0.0 0.0 0.00 0.00 0.00 61 1007.6
20260505071812 62 0 0.0 0.0 0.00 0.00 0.00 61 1007.6
20260505071711 62 0 0.0 0.0 0.00 0.00 0.00 61 1007.6
20260505071640 62 0 0.0 0.0 0.00 0.00 0.00 61 1007.6
20260505071611 62 0 0.0 0.0 0.00 0.00 0.00 61 1007.6
20260505071536 62 0 0.0 0.0 0.00 0.00 0.00 61 1007.6
20260505071531 62 0 0.0 0.0 0.00 0.00 0.00 61 1007.6
20260505071522 62 0 0.0 0.0 0.00 0.00 0.00 61 1007.6
20260505071520 63 360 0.0 0.0 0.00 0.00 0.00 61 1007.7
20260505071207 62 0 0.0 0.0 0.00 0.00 0.00 61 1007.6
20260505071105 62 0 0.0 0.0 0.00 0.00 0.00 61 1007.7
20260505071020 63 360 0.0 0.0 0.00 0.00 0.00 61 1007.7
20260505071005 63 0 0.0 0.0 0.00 0.00 0.00 61 1007.6
20260505070907 63 0 0.0 0.0 0.00 0.00 0.00 61 1007.7
20260505070900 63 0 0.0 0.0 0.00 0.00 0.00 61 1007.7
20260505070804 63 0 0.0 0.0 0.00 0.00 0.00 60 1007.7
20260505070704 63 0 0.0 0.0 0.00 0.00 0.00 60 1007.7
20260505070603 63 0 0.0 0.0 0.00 0.00 0.00 60 1007.7
20260505070522 63 0 0.0 0.0 0.00 0.00 0.00 60 1007.8
20260505070520 63 360 0.0 0.0 0.00 0.00 0.00 60 1007.8
20260505070516 63 0 0.0 0.0 0.00 0.00 0.00 60 1007.7
20260505070403 63 0 0.0 0.0 0.00 0.00 0.00 60 1007.8
20260505070301 63 0 0.0 0.0 0.00 0.00 0.00 60 1007.7
20260505070201 63 0 0.0 0.0 0.00 0.00 0.00 60 1007.7
20260505070115 63 0 0.0 0.0 0.00 0.00 0.00 60 1007.7
20260505070109 63 0 0.0 0.0 0.00 0.00 0.00 60 1007.7
20260505070050 63 360 0.0 0.0 0.00 0.00 0.00 60 1007.8
20260505065859 63 0 0.0 0.0 0.00 0.00 0.00 60 1007.7
20260505065758 63 0 0.0 0.0 0.00 0.00 0.00 60 1007.6
20260505065658 63 0 0.0 0.0 0.00 0.00 0.00 60 1007.6
20260505065558 63 0 0.0 0.0 0.00 0.00 0.00 60 1007.6
20260505065520 63 360 0.0 0.0 0.00 0.00 0.00 60 1007.7
20260505065457 63 0 0.0 0.0 0.00 0.00 0.00 60 1007.6
20260505065356 63 0 0.0 0.0 0.00 0.00 0.00 60 1007.7
20260505065256 63 0 0.0 0.0 0.00 0.00 0.00 60 1007.6
20260505065209 63 0 0.0 0.0 0.00 0.00 0.00 60 1007.6
20260505065203 63 0 0.0 0.0 0.00 0.00 0.00 60 1007.6
20260505065020 63 360 0.0 0.0 0.00 0.00 0.00 60 1007.7
20260505064954 63 0 0.0 0.0 0.00 0.00 0.00 60 1007.6
20260505064853 63 0 0.0 0.0 0.00 0.00 0.00 60 1007.6
20260505064753 63 0 0.0 0.9 0.00 0.00 0.00 60 1007.6
20260505064652 63 0 0.0 0.9 0.00 0.00 0.00 60 1007.7
20260505064552 63 0 0.0 0.9 0.00 0.00 0.00 60 1007.6
20260505064520 63 360 0.0 0.9 0.00 0.00 0.00 60 1007.7
20260505064451 63 0 0.0 0.9 0.00 0.00 0.00 60 1007.6
20260505064352 63 0 0.0 0.9 0.00 0.00 0.00 60 1007.6
20260505064250 63 0 0.0 0.9 0.00 0.00 0.00 60 1007.6
20260505064150 63 0 0.0 0.9 0.00 0.00 0.00 60 1007.6
20260505064049 63 0 0.0 0.9 0.00 0.00 0.00 60 1007.6
20260505064020 63 360 0.0 0.9 0.00 0.00 0.00 60 1007.7
20260505063949 63 0 0.0 0.9 0.00 0.00 0.00 60 1007.6
20260505063856 63 0 0.0 0.9 0.00 0.00 0.00 60 1007.6
20260505063849 63 0 0.0 1.7 0.00 0.00 0.00 60 1007.6
20260505063748 63 0 0.0 1.7 0.00 0.00 0.00 60 1007.6
20260505063647 63 0 0.0 1.7 0.00 0.00 0.00 60 1007.6
20260505063546 63 0 0.0 1.7 0.00 0.00 0.00 60 1007.6
20260505063519 63 360 0.0 1.7 0.00 0.00 0.00 60 1007.7
20260505063500 62 0 0.0 1.7 0.00 0.00 0.00 60 1007.6
20260505063451 62 0 0.0 1.7 0.00 0.00 0.00 60 1007.6
20260505063245 62 0 0.0 1.7 0.00 0.00 0.00 60 1007.6
20260505063145 62 0 0.0 1.7 0.00 0.00 0.00 60 1007.6
20260505063044 62 0 0.0 1.7 0.00 0.00 0.00 60 1007.6
20260505063020 63 360 0.0 1.7 0.00 0.00 0.00 60 1007.7
20260505062958 62 0 0.0 1.7 0.00 0.00 0.00 60 1007.6
20260505062950 62 0 0.0 1.7 0.00 0.00 0.00 60 1007.6
20260505062743 62 0 0.0 1.7 0.00 0.00 0.00 60 1007.6
20260505062643 62 0 0.0 1.7 0.00 0.00 0.00 60 1007.6
20260505062609 62 0 0.0 1.7 0.00 0.00 0.00 60 1007.7
20260505062543 62 0 0.0 1.7 0.00 0.00 0.00 60 1007.7
20260505062520 63 360 0.0 1.7 0.00 0.00 0.00 60 1007.8
20260505062501 62 0 0.0 1.7 0.00 0.00 0.00 60 1007.7
20260505062341 62 0 0.0 1.7 0.00 0.00 0.00 60 1007.7
20260505062241 62 0 0.0 1.7 0.00 0.00 0.00 60 1007.7
20260505062158 62 0 0.0 1.7 0.00 0.00 0.00 60 1007.7
20260505062154 62 0 0.0 1.7 0.00 0.00 0.00 59 1007.7
20260505062149 62 0 0.0 1.7 0.00 0.00 0.00 60 1007.7
20260505062035 63 360 0.0 0.9 0.00 0.00 0.00 59 1007.8
20260505062000 62 0 0.0 1.7 0.00 0.00 0.00 59 1007.7
20260505061837 62 0 0.0 1.7 0.00 0.00 0.00 59 1007.7
20260505061737 62 0 0.0 1.7 0.00 0.00 0.00 59 1007.6
20260505061637 62 0 0.0 1.7 0.00 0.00 0.00 59 1007.6
20260505061536 62 0 0.0 1.7 0.00 0.00 0.00 59 1007.6
20260505061520 62 360 0.0 5.2 0.00 0.00 0.00 59 1007.7
20260505061436 62 0 0.0 5.2 0.00 0.00 0.00 59 1007.6
20260505061349 62 0 0.0 5.2 0.00 0.00 0.00 59 1007.6
20260505061335 62 0 0.0 5.2 0.00 0.00 0.00 60 1007.6
20260505061235 62 0 0.0 5.2 0.00 0.00 0.00 60 1007.6
20260505061135 62 0 0.0 5.2 0.00 0.00 0.00 60 1007.6
20260505061116 62 0 0.0 5.2 0.00 0.00 0.00 60 1007.6
20260505061110 62 0 0.0 5.2 0.00 0.00 0.00 60 1007.6
20260505061104 62 0 0.0 5.2 0.00 0.00 0.00 60 1007.6
20260505061050 62 360 0.0 5.2 0.00 0.00 0.00 60 1007.7
20260505060833 62 0 0.0 5.2 0.00 0.00 0.00 60 1007.6
20260505060732 62 0 0.0 5.2 0.00 0.00 0.00 60 1007.5
20260505060632 62 0 0.0 9.6 0.00 0.00 0.00 60 1007.5
20260505060605 62 360 0.0 9.6 0.00 0.00 0.00 60 1007.6
20260505060531 62 0 0.0 9.6 0.00 0.00 0.00 60 1007.6
20260505060445 62 0 0.0 9.6 0.00 0.00 0.00 60 1007.5
20260505060437 62 0 0.0 9.6 0.00 0.00 0.00 60 1007.6
20260505060230 62 0 0.0 9.6 0.00 0.00 0.00 60 1007.5
20260505060129 62 0 0.0 9.6 0.00 0.00 0.00 60 1007.6
20260505060043 62 0 0.0 9.6 0.00 0.00 0.00 60 1007.6
20260505060038 62 0 0.0 9.6 0.00 0.00 0.00 60 1007.5
20260505060020 62 360 0.0 9.6 0.00 0.00 0.00 60 1007.7
20260505055827 62 0 0.0 9.6 0.00 0.00 0.00 60 1007.6
20260505055748 62 0 0.0 9.6 0.00 0.00 0.00 60 1007.6
20260505055634 61 0 0.0 7.0 0.00 0.00 0.00 60 1007.6
20260505055520 61 360 0.0 3.5 0.00 0.00 0.00 60 1007.7
20260505055454 61 0 0.0 0.9 0.00 0.00 0.00 60 1007.6
20260505055448 61 0 0.0 3.5 0.00 0.00 0.00 60 1007.6
20260505055440 61 0 0.0 3.5 0.00 0.00 0.00 61 1007.6
20260505055124 61 0 0.0 0.9 0.00 0.00 0.00 60 1007.5
20260505055035 61 360 0.0 5.2 0.00 0.00 0.00 61 1007.6
20260505055023 61 0 0.0 0.9 0.00 0.00 0.00 61 1007.6
20260505054951 61 0 0.0 5.2 0.00 0.00 0.00 60 1007.5
20260505054943 61 0 0.0 5.2 0.00 0.00 0.00 60 1007.5
20260505054832 61 0 0.0 5.2 0.00 0.00 0.00 60 1007.5
20260505054622 61 0 0.0 5.2 0.00 0.00 0.00 60 1007.6
20260505054522 61 0 0.0 5.2 0.00 0.00 0.00 60 1007.6
20260505054520 61 360 0.0 5.2 0.00 0.00 0.00 60 1007.7
20260505054435 61 0 0.0 5.2 0.00 0.00 0.00 60 1007.6
20260505054427 61 0 0.0 5.2 0.00 0.00 0.00 60 1007.6
20260505054219 61 0 0.0 5.2 0.00 0.00 0.00 60 1007.6
20260505054119 61 0 0.0 5.2 0.00 0.00 0.00 60 1007.6
20260505054020 61 360 3.5 3.5 0.00 0.00 0.00 60 1007.6
20260505053918 61 0 0.0 0.0 0.00 0.00 0.00 60 1007.5
20260505053833 61 0 0.0 0.0 0.00 0.00 0.00 60 1007.5
20260505053827 61 0 0.0 0.0 0.00 0.00 0.00 60 1007.6
20260505053617 61 0 0.0 0.0 0.00 0.00 0.00 59 1007.6
20260505053602 61 0 0.0 0.0 0.00 0.00 0.00 59 1007.6
20260505053520 61 360 0.0 0.0 0.00 0.00 0.00 59 1007.7
20260505053516 61 0 0.0 0.0 0.00 0.00 0.00 59 1007.5
20260505053452 61 0 0.0 0.0 0.00 0.00 0.00 59 1007.6
20260505053314 61 0 0.0 0.0 0.00 0.00 0.00 59 1007.6
20260505053214 62 0 0.0 0.0 0.00 0.00 0.00 59 1007.6
20260505053114 62 0 0.0 0.0 0.00 0.00 0.00 58 1007.5
20260505053107 62 0 0.0 0.0 0.00 0.00 0.00 58 1007.5
20260505053020 62 360 0.0 0.0 0.00 0.00 0.00 58 1007.7
20260505053014 62 0 0.0 0.0 0.00 0.00 0.00 58 1007.6
20260505052949 62 0 0.0 0.0 0.00 0.00 0.00 58 1007.5
20260505052812 62 0 0.0 0.0 0.00 0.00 0.00 58 1007.5
20260505052723 62 0 0.0 0.0 0.00 0.00 0.00 58 1007.6
20260505052609 62 0 0.0 0.0 0.00 0.00 0.00 58 1007.6
20260505052520 62 360 0.0 0.0 0.00 0.00 0.00 58 1007.6
20260505052509 62 0 0.0 0.0 0.00 0.00 0.00 58 1007.5
20260505052448 62 0 0.0 0.9 0.00 0.00 0.00 58 1007.6
20260505052308 62 0 0.0 0.9 0.00 0.00 0.00 58 1007.7
20260505052207 62 0 0.0 0.9 0.00 0.00 0.00 57 1007.6
20260505052107 62 0 0.0 0.9 0.00 0.00 0.00 57 1007.6
20260505052020 62 360 0.0 0.9 0.00 0.00 0.00 58 1007.8
20260505052006 62 0 0.0 0.9 0.00 0.00 0.00 58 1007.7
20260505051906 62 0 0.0 0.9 0.00 0.00 0.00 57 1007.7
20260505051841 62 0 0.0 0.9 0.00 0.00 0.00 57 1007.7
20260505051806 62 0 0.0 0.9 0.00 0.00 0.00 57 1007.7
20260505051705 62 0 0.0 0.9 0.00 0.00 0.00 57 1007.6
20260505051605 62 0 0.0 0.9 0.00 0.00 0.00 57 1007.7
20260505051520 62 360 0.0 0.9 0.00 0.00 0.00 57 1007.8
20260505051503 62 0 0.0 0.9 0.00 0.00 0.00 57 1007.7
20260505051340 62 0 0.0 0.0 0.00 0.00 0.00 57 1007.6
20260505051301 62 0 0.0 0.0 0.00 0.00 0.00 57 1007.7
20260505051201 62 0 0.0 0.0 0.00 0.00 0.00 57 1007.7
20260505051100 62 0 0.0 0.0 0.00 0.00 0.00 57 1007.7
20260505051020 62 360 0.0 0.0 0.00 0.00 0.00 57 1007.8
20260505051000 62 0 0.0 0.0 0.00 0.00 0.00 57 1007.7
20260505050838 62 0 0.0 0.0 0.00 0.00 0.00 56 1007.7
20260505050759 62 0 0.0 0.0 0.00 0.00 0.00 56 1007.7
20260505050659 62 0 0.0 0.0 0.00 0.00 0.00 56 1007.7
20260505050558 62 0 0.0 0.0 0.00 0.00 0.00 56 1007.7
20260505050535 62 360 0.0 0.0 0.00 0.00 0.00 56 1007.8
20260505050459 62 0 0.0 0.0 0.00 0.00 0.00 56 1007.7
20260505050336 62 0 0.0 0.0 0.00 0.00 0.00 56 1007.7
20260505050258 62 0 0.0 0.0 0.00 0.00 0.00 56 1007.7
20260505050158 62 0 0.0 0.0 0.00 0.00 0.00 56 1007.8
20260505050110 62 0 0.0 0.0 0.00 0.00 0.00 56 1007.8
20260505050105 62 0 0.0 0.0 0.00 0.00 0.00 56 1007.7
20260505041734 63 0 0.0 5.2 0.00 0.00 0.00 51 1007.7
20260505041634 63 0 0.0 5.2 0.00 0.00 0.00 51 1007.7
20260505041535 63 360 0.0 7.0 0.00 0.00 0.00 51 1007.7
20260505041533 63 0 0.9 7.0 0.00 0.00 0.00 51 1007.7
20260505041433 63 0 0.9 7.0 0.00 0.00 0.00 51 1007.7
20260505041326 63 0 0.9 7.0 0.00 0.00 0.00 51 1007.7
20260505041230 64 0 0.9 7.0 0.00 0.00 0.00 51 1007.7
20260505041130 64 0 0.9 7.0 0.00 0.00 0.00 51 1007.6
20260505041109 64 0 0.9 7.0 0.00 0.00 0.00 51 1007.7
20260505041020 64 360 0.0 7.0 0.00 0.00 0.00 51 1007.5
20260505040957 64 0 0.9 7.0 0.00 0.00 0.00 51 1007.6
20260505040951 64 0 0.9 7.0 0.00 0.00 0.00 51 1007.5
20260505040838 64 0 0.9 7.0 0.00 0.00 0.00 51 1007.6
20260505040627 64 0 0.9 15.6 0.00 0.00 0.00 50 1007.6
20260505040540 64 0 0.9 15.6 0.00 0.00 0.00 50 1007.5
20260505040535 64 0 0.9 15.6 0.00 0.00 0.00 50 1007.5
20260505040520 64 360 0.0 15.6 0.00 0.00 0.00 50 1007.5
20260505040345 64 0 0.9 15.6 0.00 0.00 0.00 50 1007.5
20260505040335 64 0 0.9 15.6 0.00 0.00 0.00 50 1007.5
20260505040124 64 0 0.9 15.6 0.00 0.00 0.00 50 1007.5
20260505040035 64 360 0.0 15.6 0.00 0.00 0.00 50 1007.5
20260505040022 64 0 0.9 15.6 0.00 0.00 0.00 50 1007.4
20260505035922 64 0 0.9 15.6 0.00 0.00 0.00 50 1007.5
20260505035821 64 0 0.9 15.6 0.00 0.00 0.00 50 1007.4
20260505035721 64 0 0.9 15.6 0.00 0.00 0.00 50 1007.5
20260505035619 64 0 0.9 15.6 0.00 0.00 0.00 50 1007.4
20260505035520 64 360 0.0 15.6 0.00 0.00 0.00 50 1007.4
20260505035419 64 0 0.9 15.6 0.00 0.00 0.00 49 1007.4
20260505035316 64 0 0.9 15.6 0.00 0.00 0.00 49 1007.4
20260505035216 64 0 0.9 15.6 0.00 0.00 0.00 49 1007.4
20260505035115 64 0 0.0 15.6 0.00 0.00 0.00 49 1007.4
20260505035020 64 360 0.0 7.0 0.00 0.00 0.00 49 1007.5
20260505035014 64 0 0.9 7.0 0.00 0.00 0.00 49 1007.5
20260505034915 64 0 0.9 10.4 0.00 0.00 0.00 49 1007.5
20260505034821 64 0 0.9 10.4 0.00 0.00 0.00 49 1007.5
20260505034814 64 0 0.9 10.4 0.00 0.00 0.00 49 1007.4
20260505034714 64 0 0.9 10.4 0.00 0.00 0.00 49 1007.5
20260505034614 64 0 0.9 13.0 0.00 0.00 0.00 49 1007.6
20260505034520 64 360 0.0 10.4 0.00 0.00 0.00 49 1007.5
20260505034513 64 0 0.9 13.0 0.00 0.00 0.00 49 1007.5
20260505034414 64 0 0.9 13.0 0.00 0.00 0.00 49 1007.5
20260505034320 64 0 0.9 13.0 0.00 0.00 0.00 49 1007.5
20260505034313 65 0 1.7 13.0 0.00 0.00 0.00 49 1007.5
20260505034212 64 0 1.7 13.0 0.00 0.00 0.00 49 1007.5
20260505034112 65 0 1.7 13.0 0.00 0.00 0.00 49 1007.4
20260505034020 65 360 2.6 10.4 0.00 0.00 0.00 49 1007.4
20260505034011 65 0 0.9 13.0 0.00 0.00 0.00 49 1007.4
20260505033910 65 0 0.9 13.0 0.00 0.00 0.00 49 1007.4
20260505033822 65 0 0.9 13.0 0.00 0.00 0.00 48 1007.4
20260505033809 65 0 1.7 13.0 0.00 0.00 0.00 48 1007.5
20260505033709 65 0 1.7 13.0 0.00 0.00 0.00 48 1007.4
20260505033609 65 0 1.7 11.3 0.00 0.00 0.00 48 1007.5
20260505033535 65 360 0.0 10.4 0.00 0.00 0.00 48 1007.4
20260505033509 65 0 0.9 11.3 0.00 0.00 0.00 48 1007.4
20260505033407 65 0 0.9 11.3 0.00 0.00 0.00 48 1007.4
20260505033321 65 0 0.9 11.3 0.00 0.00 0.00 48 1007.4
20260505033307 65 0 0.9 11.3 0.00 0.00 0.00 48 1007.5
20260505033207 65 0 0.9 11.3 0.00 0.00 0.00 48 1007.5
20260505033107 65 0 1.7 11.3 0.00 0.00 0.00 48 1007.5
20260505033020 65 360 0.0 11.3 0.00 0.00 0.00 48 1007.5
20260505033008 65 0 1.7 11.3 0.00 0.00 0.00 48 1007.5
20260505032905 65 0 1.7 13.0 0.00 0.00 0.00 48 1007.4
20260505032805 65 0 1.7 13.0 0.00 0.00 0.00 48 1007.4
20260505032740 65 0 1.7 13.0 0.00 0.00 0.00 47 1007.5
20260505032734 65 0 0.9 13.0 0.00 0.00 0.00 48 1007.5
20260505032621 65 0 0.9 13.0 0.00 0.00 0.00 48 1007.5
20260505032535 65 360 0.0 13.0 0.00 0.00 0.00 47 1007.5
20260505032319 65 0 1.7 13.0 0.00 0.00 0.00 48 1007.5
20260505032304 65 0 0.9 13.0 0.00 0.00 0.00 48 1007.5
20260505032202 65 0 0.9 13.0 0.00 0.00 0.00 47 1007.5
20260505032122 65 0 0.9 13.0 0.00 0.00 0.00 47 1007.5
20260505032035 65 360 2.6 13.0 0.00 0.00 0.00 47 1007.5
20260505032009 65 0 0.0 13.0 0.00 0.00 0.00 47 1007.5
20260505031820 65 0 0.0 8.7 0.00 0.00 0.00 47 1007.5
20260505031800 65 0 0.0 8.7 0.00 0.00 0.00 47 1007.5
20260505031659 65 0 0.0 8.7 0.00 0.00 0.00 47 1007.5
20260505031559 65 0 0.0 8.7 0.00 0.00 0.00 47 1007.5
20260505031520 65 360 0.0 8.7 0.00 0.00 0.00 47 1007.5
20260505031458 65 0 0.0 8.7 0.00 0.00 0.00 47 1007.5
20260505031357 65 0 0.0 3.5 0.00 0.00 0.00 47 1007.5
20260505031317 65 0 0.0 3.5 0.00 0.00 0.00 47 1007.5
20260505031256 65 0 0.0 3.5 0.00 0.00 0.00 47 1007.6
20260505031156 65 0 0.0 3.5 0.00 0.00 0.00 47 1007.6
20260505031055 65 0 0.0 3.5 0.00 0.00 0.00 47 1007.6
20260505031020 65 360 0.0 5.2 0.00 0.00 0.00 46 1007.5
20260505030952 65 0 0.0 5.2 0.00 0.00 0.00 47 1007.5
20260505030852 65 0 0.0 5.2 0.00 0.00 0.00 46 1007.5
20260505030821 65 0 0.0 5.2 0.00 0.00 0.00 46 1007.5
20260505030814 65 0 0.0 5.2 0.00 0.00 0.00 46 1007.6
20260505030701 65 0 0.0 5.2 0.00 0.00 0.00 46 1007.6
20260505030520 65 360 0.0 5.2 0.00 0.00 0.00 46 1007.5
20260505030452 65 0 0.0 5.2 0.00 0.00 0.00 46 1007.5
20260505030352 65 0 0.0 5.2 0.00 0.00 0.00 46 1007.5
20260505030317 65 0 0.0 5.2 0.00 0.00 0.00 46 1007.5
20260505030251 65 0 0.0 5.2 0.00 0.00 0.00 46 1007.5
20260505030151 65 0 0.0 5.2 0.00 0.00 0.00 46 1007.5
20260505030051 65 0 0.0 5.2 0.00 0.00 0.00 47 1007.5
20260505030020 65 360 0.9 3.5 0.00 0.00 0.00 47 1007.5
20260505025949 65 0 0.0 3.5 0.00 0.00 0.00 47 1007.5
20260505025848 65 0 0.0 3.5 0.00 0.00 0.00 46 1007.5
20260505025816 65 0 0.0 3.5 0.00 0.00 0.00 46 1007.5
20260505025810 65 0 0.0 3.5 0.00 0.00 0.00 46 1007.5
20260505025656 65 0 0.0 3.5 0.00 0.00 0.00 47 1007.5
20260505025520 65 360 2.6 4.3 0.00 0.00 0.00 47 1007.4
20260505025447 65 0 0.9 4.3 0.00 0.00 0.00 47 1007.4
20260505025347 65 0 0.9 8.7 0.00 0.00 0.00 46 1007.5
20260505025314 65 0 0.9 8.7 0.00 0.00 0.00 46 1007.5
20260505025246 65 0 0.9 8.7 0.00 0.00 0.00 46 1007.5
20260505025145 65 0 0.9 8.7 0.00 0.00 0.00 46 1007.5
20260505025044 65 0 0.9 8.7 0.00 0.00 0.00 46 1007.5
20260505025020 65 360 0.0 8.7 0.00 0.00 0.00 46 1007.5
20260505024942 65 0 0.9 8.7 0.00 0.00 0.00 46 1007.5
20260505024814 65 0 0.9 8.7 0.00 0.00 0.00 46 1007.6
20260505024743 65 0 0.9 8.7 0.00 0.00 0.00 46 1007.6
20260505024643 65 0 0.9 8.7 0.00 0.00 0.00 46 1007.6
20260505024540 65 0 0.9 8.7 0.00 0.00 0.00 46 1007.6
20260505024535 65 360 0.0 8.7 0.00 0.00 0.00 46 1007.6
20260505024440 65 0 0.9 8.7 0.00 0.00 0.00 46 1007.6
20260505024359 65 0 0.9 7.0 0.00 0.00 0.00 46 1007.7
20260505024347 65 0 0.9 7.0 0.00 0.00 0.00 46 1007.7
20260505024138 65 0 0.9 7.0 0.00 0.00 0.00 46 1007.7
20260505024051 65 0 0.9 7.0 0.00 0.00 0.00 46 1007.7
20260505024046 65 0 0.9 7.0 0.00 0.00 0.00 46 1007.8
20260505024021 65 360 0.0 7.0 0.00 0.00 0.00 46 1007.7
20260505023837 65 0 0.9 7.0 0.00 0.00 0.00 46 1007.8
20260505023814 65 0 0.0 7.0 0.00 0.00 0.00 46 1007.8
20260505023735 65 0 0.0 7.0 0.00 0.00 0.00 46 1007.8
20260505023635 65 0 0.0 7.0 0.00 0.00 0.00 46 1007.8
20260505023534 65 0 0.0 7.0 0.00 0.00 0.00 46 1007.8
20260505023520 65 360 4.3 7.0 0.00 0.00 0.00 46 1007.8
20260505023434 65 0 0.0 4.3 0.00 0.00 0.00 46 1007.8
20260505023353 65 0 0.0 5.2 0.00 0.00 0.00 46 1007.8
20260505023348 65 0 0.0 4.3 0.00 0.00 0.00 46 1007.8
20260505023341 65 0 0.0 5.2 0.00 0.00 0.00 46 1007.8
20260505023133 65 0 0.0 5.2 0.00 0.00 0.00 46 1007.8
20260505023100 65 0 0.0 5.2 0.00 0.00 0.00 46 1007.8
20260505023056 65 0 0.0 5.2 0.00 0.00 0.00 46 1007.8
20260505023051 65 0 0.0 5.2 0.00 0.00 0.00 46 1007.8
20260505023020 65 360 0.0 5.2 0.00 0.00 0.00 46 1007.8
20260505022810 65 0 0.0 5.2 0.00 0.00 0.00 46 1007.8
20260505022731 65 0 0.0 5.2 0.00 0.00 0.00 46 1007.8
20260505022630 65 0 0.0 5.2 0.00 0.00 0.00 46 1007.8
20260505022535 65 360 0.0 5.2 0.00 0.00 0.00 46 1007.9
20260505022530 65 0 0.0 5.2 0.00 0.00 0.00 46 1007.9
20260505022430 65 0 0.0 5.2 0.00 0.00 0.00 46 1007.9
20260505022329 65 0 0.0 5.2 0.00 0.00 0.00 46 1007.8
20260505022310 65 0 0.0 4.3 0.00 0.00 0.00 46 1007.9
20260505022229 65 0 0.0 4.3 0.00 0.00 0.00 46 1007.9
20260505022127 65 0 0.0 4.3 0.00 0.00 0.00 46 1007.8
20260505022027 65 0 0.0 4.3 0.00 0.00 0.00 46 1007.9
20260505022020 65 360 0.0 4.3 0.00 0.00 0.00 46 1007.8
20260505021943 65 0 0.0 5.2 0.00 0.00 0.00 46 1007.9
20260505021937 65 0 0.0 4.3 0.00 0.00 0.00 46 1007.8
20260505021809 65 0 0.0 5.2 0.00 0.00 0.00 46 1007.9
20260505021741 65 0 0.0 5.2 0.00 0.00 0.00 46 1007.9
20260505021736 65 0 0.0 5.2 0.00 0.00 0.00 46 1007.9
20260505021525 65 0 0.0 5.2 0.00 0.00 0.00 46 1007.9
20260505021520 65 360 0.0 5.2 0.00 0.00 0.00 46 1007.9
20260505021425 65 0 0.0 5.2 0.00 0.00 0.00 47 1007.9
20260505021308 65 0 0.0 5.2 0.00 0.00 0.00 46 1007.9
20260505021222 65 0 0.0 5.2 0.00 0.00 0.00 46 1007.9
20260505021122 65 0 0.0 5.2 0.00 0.00 0.00 46 1007.9
20260505021050 65 360 0.0 7.8 0.00 0.00 0.00 46 1007.8
20260505021019 65 0 0.9 7.8 0.00 0.00 0.00 46 1007.9
20260505020920 65 0 0.9 7.8 0.00 0.00 0.00 46 1007.8
20260505020819 65 0 0.9 7.8 0.00 0.00 0.00 46 1007.9
20260505020809 65 0 0.0 7.8 0.00 0.00 0.00 46 1007.8
20260505020719 65 0 0.0 7.8 0.00 0.00 0.00 46 1007.8
20260505020618 65 0 0.0 7.8 0.00 0.00 0.00 46 1007.9
20260505020535 65 360 0.0 7.8 0.00 0.00 0.00 46 1007.9
20260505020531 65 0 0.0 7.8 0.00 0.00 0.00 46 1007.9
20260505020526 65 0 0.0 7.8 0.00 0.00 0.00 46 1007.9
20260505020309 65 0 0.0 7.8 0.00 0.00 0.00 46 1007.9
20260505020215 65 0 0.0 7.8 0.00 0.00 0.00 46 1007.9
20260505020115 65 0 0.0 7.8 0.00 0.00 0.00 46 1007.9
20260505020020 65 360 0.0 0.9 0.00 0.00 0.00 46 1007.9
20260505020012 65 0 0.0 0.9 0.00 0.00 0.00 46 1007.9
20260505015929 65 0 0.0 1.7 0.00 0.00 0.00 46 1007.8
20260505015924 65 0 0.0 0.9 0.00 0.00 0.00 46 1007.9
20260505015808 65 0 0.0 1.7 0.00 0.00 0.00 46 1007.8
20260505015711 65 0 0.0 1.7 0.00 0.00 0.00 46 1007.9
20260505015611 65 0 0.0 1.7 0.00 0.00 0.00 46 1007.8
20260505015520 65 360 0.0 1.7 0.00 0.00 0.00 46 1007.8
20260505015511 65 0 0.0 1.7 0.00 0.00 0.00 46 1007.9
20260505015427 65 0 0.0 1.7 0.00 0.00 0.00 46 1007.8
20260505015422 65 0 0.0 1.7 0.00 0.00 0.00 46 1007.8
20260505015306 65 0 0.0 1.7 0.00 0.00 0.00 46 1007.8
20260505015224 65 0 0.0 5.2 0.00 0.00 0.00 45 1007.8
20260505015219 65 0 0.0 5.2 0.00 0.00 0.00 46 1007.8
20260505015020 66 360 0.9 5.2 0.00 0.00 0.00 45 1007.7
20260505015009 65 0 0.0 5.2 0.00 0.00 0.00 45 1007.8
20260505014908 66 0 0.0 5.2 0.00 0.00 0.00 46 1007.8
20260505014810 66 0 0.0 5.2 0.00 0.00 0.00 45 1007.8
20260505014708 66 0 0.0 5.2 0.00 0.00 0.00 45 1007.9
20260505014608 66 0 0.0 5.2 0.00 0.00 0.00 46 1007.8
20260505014550 66 360 0.0 5.2 0.00 0.00 0.00 45 1007.7
20260505014507 66 0 0.0 5.2 0.00 0.00 0.00 45 1007.8
20260505014407 66 0 0.0 5.2 0.00 0.00 0.00 45 1007.8
20260505014307 66 0 0.0 5.2 0.00 0.00 0.00 45 1007.8
20260505014206 66 0 0.0 1.7 0.00 0.00 0.00 45 1007.9
20260505014106 66 0 0.0 1.7 0.00 0.00 0.00 45 1007.9
20260505014033 66 0 0.0 2.6 0.00 0.00 0.00 45 1007.9
20260505014020 66 360 0.0 1.7 0.00 0.00 0.00 45 1007.8
20260505014005 66 0 0.0 1.7 0.00 0.00 0.00 45 1007.9
20260505013919 66 0 0.0 2.6 0.00 0.00 0.00 45 1007.9
20260505013804 66 0 0.0 2.6 0.00 0.00 0.00 45 1007.9
20260505013704 66 0 0.0 2.6 0.00 0.00 0.00 45 1007.9
20260505013604 66 0 0.0 2.6 0.00 0.00 0.00 45 1007.9
20260505013521 66 360 0.0 7.8 0.00 0.00 0.00 45 1007.8
20260505013515 66 0 0.0 7.8 0.00 0.00 0.00 45 1007.9
20260505013511 66 0 0.0 7.8 0.00 0.00 0.00 45 1007.9
20260505013307 66 0 0.0 7.8 0.00 0.00 0.00 45 1007.9
20260505013301 66 0 0.0 7.8 0.00 0.00 0.00 45 1007.9
20260505013203 66 0 0.0 7.8 0.00 0.00 0.00 45 1007.9
20260505013113 65 0 0.0 7.8 0.00 0.00 0.00 45 1007.9
20260505013109 65 0 0.0 7.8 0.00 0.00 0.00 45 1007.9
20260505013020 66 360 0.0 7.8 0.00 0.00 0.00 45 1007.8
20260505012900 65 0 0.0 7.8 0.00 0.00 0.00 46 1007.9
20260505012805 65 0 0.0 7.8 0.00 0.00 0.00 46 1007.9
20260505012759 65 0 0.0 7.8 0.00 0.00 0.00 46 1007.9
20260505012659 65 0 0.0 7.8 0.00 0.00 0.00 46 1007.9
20260505012557 65 0 0.0 7.8 0.00 0.00 0.00 46 1007.8
20260505012520 65 360 7.8 7.8 0.00 0.00 0.00 46 1007.8
20260505012511 65 0 0.0 3.5 0.00 0.00 0.00 46 1007.9
20260505012507 65 0 0.0 4.3 0.00 0.00 0.00 46 1007.9
20260505012315 65 0 0.0 3.5 0.00 0.00 0.00 46 1007.9
20260505012311 65 0 0.0 3.5 0.00 0.00 0.00 46 1007.9
20260505012306 65 0 0.0 3.5 0.00 0.00 0.00 46 1007.9
20260505012056 65 0 0.0 3.5 0.00 0.00 0.00 46 1007.9
20260505012020 65 360 0.0 3.5 0.00 0.00 0.00 46 1007.8
20260505011956 65 0 0.0 3.5 0.00 0.00 0.00 46 1007.9
20260505011856 65 0 0.0 3.5 0.00 0.00 0.00 46 1007.8
20260505011815 65 0 0.0 3.5 0.00 0.00 0.00 46 1007.9
20260505011702 65 0 0.0 3.5 0.00 0.00 0.00 46 1007.8
20260505011535 65 360 0.0 0.0 0.00 0.00 0.00 46 1007.7
20260505011452 64 0 0.0 0.0 0.00 0.00 0.00 46 1007.8
20260505011352 64 0 0.0 0.0 0.00 0.00 0.00 46 1007.8
20260505011252 64 0 0.0 0.0 0.00 0.00 0.00 46 1007.8
20260505011216 64 0 0.0 0.0 0.00 0.00 0.00 47 1007.8
20260505011212 64 0 0.0 0.0 0.00 0.00 0.00 47 1007.8
20260505011208 64 0 0.0 0.0 0.00 0.00 0.00 47 1007.8
20260505011035 64 360 0.0 0.0 0.00 0.00 0.00 47 1007.7
20260505010849 64 0 0.0 0.0 0.00 0.00 0.00 47 1007.8
20260505010748 64 0 0.0 0.0 0.00 0.00 0.00 47 1007.7
20260505010648 64 0 0.0 0.0 0.00 0.00 0.00 47 1007.7
20260505010547 64 0 0.0 0.0 0.00 0.00 0.00 47 1007.6
20260505010535 64 360 0.0 0.0 0.00 0.00 0.00 47 1007.5
20260505010446 64 0 0.0 0.0 0.00 0.00 0.00 47 1007.6
20260505010242 64 0 0.0 0.0 0.00 0.00 0.00 47 1007.6
20260505010142 64 0 0.0 0.0 0.00 0.00 0.00 47 1007.5
20260505010041 64 0 0.0 0.0 0.00 0.00 0.00 47 1007.5
20260505010020 64 360 0.0 0.0 0.00 0.00 0.00 47 1007.4
20260505005941 64 0 0.0 0.0 0.00 0.00 0.00 48 1007.5
20260505005842 64 0 0.0 0.0 0.00 0.00 0.00 47 1007.4
20260505005741 64 0 0.0 0.0 0.00 0.00 0.00 47 1007.5
20260505005641 64 0 0.0 0.0 0.00 0.00 0.00 47 1007.4
20260505005541 64 0 0.0 0.0 0.00 0.00 0.00 47 1007.5
20260505005535 64 360 0.0 0.0 0.00 0.00 0.00 47 1007.4
20260505005533 65 0 0.0 0.0 0.00 0.00 0.00 46 1007.4
20260505005527 64 0 0.0 0.0 0.00 0.00 0.00 47 1007.5
20260505005415 65 0 0.0 0.0 0.00 0.00 0.00 46 1007.4
20260505005410 65 0 0.0 0.0 0.00 0.00 0.00 47 1007.5
20260505005401 65 0 0.0 0.0 0.00 0.00 0.00 46 1007.4
20260505005020 65 360 0.0 0.0 0.00 0.00 0.00 46 1007.3
20260505004937 65 0 0.0 0.0 0.00 0.00 0.00 46 1007.4
20260505004850 65 0 0.0 0.0 0.00 0.00 0.00 46 1007.3
20260505004841 65 0 0.0 0.0 0.00 0.00 0.00 45 1007.4
20260505004635 65 0 0.0 0.0 0.00 0.00 0.00 46 1007.3
20260505004547 65 0 0.0 0.0 0.00 0.00 0.00 45 1007.4
20260505004543 65 0 0.0 0.0 0.00 0.00 0.00 45 1007.3
20260505004520 65 360 0.0 0.0 0.00 0.00 0.00 45 1007.3
20260505004333 65 0 0.0 0.0 0.00 0.00 0.00 44 1007.3
20260505004232 66 0 0.0 0.0 0.00 0.00 0.00 44 1007.3
20260505004132 66 0 0.0 0.0 0.00 0.00 0.00 44 1007.3
20260505004032 66 0 0.0 0.0 0.00 0.00 0.00 44 1007.3
20260505004020 66 360 0.0 0.0 0.00 0.00 0.00 44 1007.1
20260505003932 66 0 0.0 0.0 0.00 0.00 0.00 44 1007.2
20260505003846 66 0 0.0 0.0 0.00 0.00 0.00 44 1007.3
20260505003837 66 0 0.0 0.0 0.00 0.00 0.00 44 1007.3
20260505003631 66 0 0.0 0.0 0.00 0.00 0.00 44 1007.3
20260505003535 66 360 0.0 0.0 0.00 0.00 0.00 43 1007.2
20260505003530 66 0 0.0 0.0 0.00 0.00 0.00 43 1007.3
20260505003429 66 0 0.0 0.0 0.00 0.00 0.00 43 1007.3
20260505003329 66 0 0.0 0.0 0.00 0.00 0.00 43 1007.2
20260505003229 67 0 0.0 0.0 0.00 0.00 0.00 43 1007.2
20260505003129 67 0 0.0 0.0 0.00 0.00 0.00 43 1007.3
20260505003028 67 0 0.0 0.0 0.00 0.00 0.00 42 1007.2
20260505003020 67 360 0.0 0.0 0.00 0.00 0.00 42 1007.2
20260505002928 67 0 0.0 0.0 0.00 0.00 0.00 42 1007.3
20260505002827 67 0 0.0 0.0 0.00 0.00 0.00 42 1007.2
20260505002727 67 0 0.0 0.0 0.00 0.00 0.00 42 1007.2
20260505002626 67 0 0.0 0.0 0.00 0.00 0.00 42 1007.2
20260505002525 67 0 0.0 0.0 0.00 0.00 0.00 42 1007.2
20260505002520 67 360 0.0 0.0 0.00 0.00 0.00 42 1007.2
20260505002514 67 0 0.0 0.0 0.00 0.00 0.00 42 1007.3
20260505002425 67 0 0.0 0.0 0.00 0.00 0.00 42 1007.3
20260505002358 67 0 0.0 0.0 0.00 0.00 0.00 42 1007.3
20260505002236 67 0 0.0 0.0 0.00 0.00 0.00 41 1007.3
20260505002232 67 0 0.0 0.0 0.00 0.00 0.00 42 1007.3
20260505002022 67 0 0.0 0.0 0.00 0.00 0.00 41 1007.3
20260505002020 67 360 0.0 0.0 0.00 0.00 0.00 41 1007.2
20260505001922 67 0 0.0 0.0 0.00 0.00 0.00 41 1007.3
20260505001822 67 0 0.0 0.0 0.00 0.00 0.00 41 1007.3
20260505001722 67 0 0.0 0.0 0.00 0.00 0.00 41 1007.2
20260505001621 67 0 0.0 0.0 0.00 0.00 0.00 41 1007.2
20260505001550 67 360 0.0 0.0 0.00 0.00 0.00 41 1007.1
20260505001521 67 0 0.0 0.0 0.00 0.00 0.00 41 1007.2
20260505001421 67 0 0.0 0.0 0.00 0.00 0.00 41 1007.2
20260505001320 67 0 0.0 0.0 0.00 0.00 0.00 41 1007.2
20260505001220 67 0 0.0 0.0 0.00 0.00 0.00 41 1007.1
20260505001119 67 0 0.0 0.0 0.00 0.00 0.00 41 1007.1
20260505001105 68 360 0.0 0.0 0.00 0.00 0.00 41 1007.0
20260505001018 67 0 0.0 0.0 0.00 0.00 0.00 41 1007.1
20260505001009 68 0 0.0 0.0 0.00 0.00 0.00 41 1007.1
20260505000918 67 0 0.0 0.0 0.00 0.00 0.00 41 1007.1
20260505000854 68 0 0.0 0.0 0.00 0.00 0.00 41 1007.1
20260505000717 68 0 0.0 0.0 0.00 0.00 0.00 41 1007.1
20260505000616 68 0 0.0 0.0 0.00 0.00 0.00 41 1007.1
20260505000535 68 360 0.0 0.0 0.00 0.00 0.00 41 1007.0
20260505000515 68 0 0.0 0.0 0.00 0.00 0.00 41 1007.1
20260505000416 68 0 0.0 0.0 0.00 0.00 0.00 41 1007.1
20260505000314 68 0 0.0 0.0 0.00 0.00 0.00 41 1007.1
20260505000215 68 0 0.0 0.0 0.00 0.00 0.00 41 1007.1
20260505000113 68 0 0.0 0.0 0.00 0.00 0.00 41 1007.1
20260505000020 68 360 0.0 0.0 0.00 0.00 0.00 40 1006.9
20260505000013 68 0 0.0 0.0 0.00 0.00 0.00 40 1007.0
20260504235913 68 0 0.0 0.0 0.00 0.00 0.00 40 1007.1
20260504235824 68 0 0.0 0.0 0.00 0.00 0.00 40 1007.1
20260504235816 68 0 0.0 0.0 0.00 0.00 0.00 41 1007.1
20260504235635 68 0 0.0 0.0 0.00 0.00 0.00 40 1007.1
20260504235522 68 0 0.0 0.0 0.00 0.00 0.00 40 1007.0
20260504235520 68 360 0.0 0.0 0.00 0.00 0.00 40 1007.0
20260504235517 68 0 0.0 0.0 0.00 0.00 0.00 40 1007.1
20260504235348 68 0 0.0 0.0 0.00 0.00 0.00 40 1007.0
20260504235207 68 0 0.0 0.0 0.00 0.00 0.00 40 1007.1
20260504235107 68 0 0.0 0.0 0.00 0.00 0.00 40 1007.1
20260504235020 68 360 0.0 0.0 0.00 0.00 0.00 39 1006.9
20260504235007 68 0 0.0 0.0 0.00 0.00 0.00 39 1007.0
20260504234906 68 0 0.0 0.0 0.00 0.00 0.00 39 1007.1
20260504234806 68 0 0.0 0.0 0.00 0.00 0.00 40 1007.1
20260504234738 68 0 0.0 0.0 0.00 0.00 0.00 40 1007.1
20260504234707 69 0 0.0 0.0 0.00 0.00 0.00 40 1007.0
20260504234605 69 0 0.0 0.0 0.00 0.00 0.00 40 1007.0
20260504234520 69 360 0.0 0.0 0.00 0.00 0.00 40 1006.9
20260504234505 69 0 0.0 0.0 0.00 0.00 0.00 40 1007.0
20260504234457 69 0 0.0 0.0 0.00 0.00 0.00 40 1007.0
20260504234405 69 0 0.0 0.0 0.00 0.00 0.00 40 1007.0
20260504234346 69 0 0.0 0.0 0.00 0.00 0.00 40 1007.0
20260504234217 69 0 0.0 0.0 0.00 0.00 0.00 39 1007.0
20260504234213 69 0 0.0 0.0 0.00 0.00 0.00 39 1007.0
20260504234020 69 360 0.0 0.9 0.00 0.00 0.00 39 1006.9
20260504234013 69 0 0.0 0.9 0.00 0.00 0.00 39 1007.0
20260504234009 69 0 0.0 0.9 0.00 0.00 0.00 39 1007.0
20260504233819 69 0 0.0 7.0 0.00 0.00 0.00 39 1006.9
20260504233814 69 0 0.0 0.9 0.00 0.00 0.00 39 1007.0
20260504233806 69 0 0.0 1.7 0.00 0.00 0.00 39 1007.0
20260504233559 69 0 0.0 7.0 0.00 0.00 0.00 39 1007.0
20260504233520 69 360 0.0 7.0 0.00 0.00 0.00 39 1006.9
20260504233512 69 0 0.0 7.0 0.00 0.00 0.00 39 1007.0
20260504233508 69 0 0.0 7.0 0.00 0.00 0.00 39 1007.0
20260504233315 69 0 0.0 7.0 0.00 0.00 0.00 38 1007.0
20260504233204 69 0 0.0 7.0 0.00 0.00 0.00 38 1007.0
20260504233020 69 360 0.0 7.0 0.00 0.00 0.00 38 1006.8
20260504233008 69 0 0.0 7.0 0.00 0.00 0.00 38 1006.9
20260504233004 69 0 0.0 7.0 0.00 0.00 0.00 38 1006.9
20260504232737 69 0 0.0 7.0 0.00 0.00 0.00 38 1007.0
20260504232653 69 0 0.0 5.2 0.00 0.00 0.00 39 1007.0
20260504232553 69 0 0.0 5.2 0.00 0.00 0.00 38 1007.0
20260504232520 70 360 0.0 5.2 0.00 0.00 0.00 38 1006.8
20260504232452 69 0 0.0 3.5 0.00 0.00 0.00 38 1007.0
20260504232351 70 0 0.0 5.2 0.00 0.00 0.00 38 1007.0
20260504232235 70 0 0.0 7.8 0.00 0.00 0.00 38 1007.0
20260504232151 70 0 0.0 7.8 0.00 0.00 0.00 38 1007.0
20260504232050 70 0 0.0 7.8 0.00 0.00 0.00 38 1007.0
20260504232020 70 360 0.0 5.2 0.00 0.00 0.00 38 1006.8
20260504231950 70 0 0.0 7.8 0.00 0.00 0.00 37 1007.0
20260504231848 70 0 0.0 7.8 0.00 0.00 0.00 38 1007.0
20260504231736 70 0 0.0 7.8 0.00 0.00 0.00 38 1007.0
20260504231701 70 0 0.9 7.8 0.00 0.00 0.00 37 1006.9
20260504231657 70 0 0.9 7.8 0.00 0.00 0.00 38 1007.0
20260504231520 70 360 0.0 5.2 0.00 0.00 0.00 37 1006.8
20260504231446 70 0 0.9 7.8 0.00 0.00 0.00 37 1007.0
20260504231347 70 0 0.0 7.8 0.00 0.00 0.00 37 1007.0
20260504231234 70 0 0.0 7.0 0.00 0.00 0.00 37 1006.9
20260504231146 70 0 0.9 7.0 0.00 0.00 0.00 37 1007.0
20260504231046 70 0 0.9 7.8 0.00 0.00 0.00 37 1007.0
20260504231020 70 360 0.0 7.8 0.00 0.00 0.00 37 1006.7
20260504230944 70 0 0.0 7.8 0.00 0.00 0.00 37 1006.9
20260504230845 70 0 0.0 7.8 0.00 0.00 0.00 37 1007.0
20260504230731 70 0 0.0 7.8 0.00 0.00 0.00 37 1007.0
20260504230645 70 0 0.0 7.8 0.00 0.00 0.00 37 1006.9
20260504230543 71 0 0.0 7.8 0.00 0.00 0.00 37 1006.9
20260504230520 71 360 2.6 7.8 0.00 0.00 0.00 37 1006.7
20260504230456 71 0 0.0 7.8 0.00 0.00 0.00 36 1006.9
20260504230451 71 0 0.0 7.8 0.00 0.00 0.00 37 1006.9
20260504230242 71 0 0.0 7.8 0.00 0.00 0.00 36 1006.9
20260504230232 71 0 0.0 7.8 0.00 0.00 0.00 36 1006.9
20260504230141 71 0 0.0 7.8 0.00 0.00 0.00 37 1006.9
20260504230041 71 0 0.0 4.3 0.00 0.00 0.00 37 1006.9
20260504230020 71 360 0.0 4.3 0.00 0.00 0.00 36 1006.7
20260504225940 71 0 0.0 4.3 0.00 0.00 0.00 36 1006.9
20260504225838 71 155 0.0 4.3 0.00 0.00 0.00 36 1006.9
20260504225739 71 194 0.0 4.3 0.00 0.00 0.00 37 1006.9
20260504225732 71 193 0.0 4.3 0.00 0.00 0.00 37 1006.9
20260504225637 71 203 0.0 4.3 0.00 0.00 0.00 36 1006.9
20260504225537 71 200 0.0 4.3 0.00 0.00 0.00 36 1006.9
20260504225520 71 177 0.0 4.3 0.00 0.00 0.00 36 1006.7
20260504225436 71 167 0.0 4.3 0.00 0.00 0.00 36 1006.9
20260504225350 71 213 0.0 4.3 0.00 0.00 0.00 36 1006.9
20260504225346 71 218 0.0 4.3 0.00 0.00 0.00 36 1006.9
20260504225230 71 223 0.0 4.3 0.00 0.00 0.00 36 1006.9
20260504225135 71 228 0.0 4.3 0.00 0.00 0.00 36 1006.9
20260504225057 71 194 0.0 4.3 0.00 0.00 0.00 36 1006.9
20260504225020 71 214 0.0 4.3 0.00 0.00 0.00 36 1006.7
20260504224943 71 188 0.0 4.3 0.00 0.00 0.00 36 1006.9
20260504224730 71 225 0.0 5.2 0.00 0.00 0.00 36 1006.8
20260504224646 71 231 0.0 5.2 0.00 0.00 0.00 36 1006.8
20260504224642 71 219 0.0 5.2 0.00 0.00 0.00 35 1006.8
20260504224520 71 193 0.0 5.2 0.00 0.00 0.00 36 1006.6
20260504224505 71 176 0.0 5.2 0.00 0.00 0.00 36 1006.8
20260504224500 71 176 0.0 5.2 0.00 0.00 0.00 35 1006.8
20260504224455 71 198 0.0 5.2 0.00 0.00 0.00 35 1006.8
20260504224337 71 176 0.0 5.2 0.00 0.00 0.00 35 1006.8
20260504224130 71 220 0.0 5.2 0.00 0.00 0.00 36 1006.8
20260504224113 71 197 0.0 6.1 0.00 0.00 0.00 35 1006.8
20260504224109 71 177 0.0 6.1 0.00 0.00 0.00 35 1006.9
20260504224105 71 187 0.0 6.1 0.00 0.00 0.00 36 1006.9
20260504224100 71 193 0.0 5.2 0.00 0.00 0.00 35 1006.8
20260504224035 71 194 0.0 5.2 0.00 0.00 0.00 35 1006.6
20260504223832 71 187 0.0 6.1 0.00 0.00 0.00 35 1006.9
20260504223626 71 209 0.0 6.1 0.00 0.00 0.00 35 1006.9
20260504223526 71 211 0.9 6.1 0.00 0.00 0.00 36 1006.9
20260504223520 71 180 3.5 6.1 0.00 0.00 0.00 36 1006.8
20260504223438 71 202 0.9 7.8 0.00 0.00 0.00 36 1007.0
20260504223434 71 224 0.9 6.1 0.00 0.00 0.00 36 1007.0
20260504223246 71 197 0.9 7.8 0.00 0.00 0.00 35 1007.0
20260504223241 71 226 0.9 7.8 0.00 0.00 0.00 35 1007.0
20260504223236 71 227 0.9 7.8 0.00 0.00 0.00 35 1007.0
20260504223226 71 169 0.9 7.8 0.00 0.00 0.00 35 1007.0
20260504223115 71 186 0.0 7.8 0.00 0.00 0.00 36 1007.0
20260504223110 71 199 0.9 7.8 0.00 0.00 0.00 35 1007.0
20260504223105 71 134 0.9 7.8 0.00 0.00 0.00 35 1007.0
20260504223020 71 193 1.7 7.8 0.00 0.00 0.00 35 1006.8
20260504222732 71 154 0.0 7.8 0.00 0.00 0.00 36 1007.0
20260504222522 71 198 0.0 7.8 0.00 0.00 0.00 36 1007.0
20260504222423 71 211 0.0 7.8 0.00 0.00 0.00 35 1007.0
20260504222342 72 187 0.0 5.2 0.00 0.00 0.00 36 1007.0
20260504222337 71 189 0.0 5.2 0.00 0.00 0.00 36 1006.9
20260504222328 72 191 0.0 5.2 0.00 0.00 0.00 36 1007.0
20260504222121 72 179 0.0 5.2 0.00 0.00 0.00 36 1007.0
20260504222020 72 192 0.0 5.2 0.00 0.00 0.00 36 1006.8
20260504221920 71 173 0.0 7.0 0.00 0.00 0.00 36 1007.0
20260504221820 71 187 0.0 7.0 0.00 0.00 0.00 36 1007.1
20260504221719 71 192 0.0 7.0 0.00 0.00 0.00 35 1007.0
20260504221620 71 227 0.0 7.0 0.00 0.00 0.00 36 1007.1
20260504221520 72 208 0.0 7.0 0.00 0.00 0.00 36 1006.8
20260504221419 72 163 0.0 7.0 0.00 0.00 0.00 36 1007.0
20260504221318 72 172 0.0 7.0 0.00 0.00 0.00 36 1007.1
20260504221226 72 196 0.0 7.0 0.00 0.00 0.00 35 1007.1
20260504221218 72 188 0.0 7.0 0.00 0.00 0.00 35 1007.1
20260504221116 72 193 0.0 7.0 0.00 0.00 0.00 36 1007.1
20260504221035 72 173 4.3 7.0 0.00 0.00 0.00 36 1006.9
20260504221016 72 149 0.0 7.0 0.00 0.00 0.00 36 1007.1
20260504220943 72 174 0.0 5.2 0.00 0.00 0.00 36 1007.1
20260504220829 72 245 0.0 6.1 0.00 0.00 0.00 36 1007.1
20260504220820 72 171 0.0 7.0 0.00 0.00 0.00 36 1007.1
20260504220614 72 213 0.9 7.0 0.00 0.00 0.00 36 1007.1
20260504220555 72 215 0.9 7.0 0.00 0.00 0.00 36 1007.0
20260504220550 72 197 0.9 7.0 0.00 0.00 0.00 36 1007.0
20260504220546 72 191 0.9 7.0 0.00 0.00 0.00 36 1007.1
20260504220541 72 194 0.9 7.0 0.00 0.00 0.00 36 1007.0
20260504220532 72 153 0.9 7.0 0.00 0.00 0.00 36 1007.0
20260504220520 72 194 0.0 7.0 0.00 0.00 0.00 36 1006.8
20260504220108 72 172 0.9 7.0 0.00 0.00 0.00 36 1007.0
20260504220022 72 193 0.9 7.0 0.00 0.00 0.00 36 1007.0
20260504220020 72 185 0.0 7.0 0.00 0.00 0.00 36 1006.8
20260504220017 72 186 0.9 7.0 0.00 0.00 0.00 36 1007.0
20260504215807 72 213 0.0 7.0 0.00 0.00 0.00 36 1007.0
20260504215723 72 218 0.0 7.0 0.00 0.00 0.00 36 1007.0
20260504215708 72 213 0.9 7.0 0.00 0.00 0.00 36 1007.1
20260504215606 72 181 0.0 7.0 0.00 0.00 0.00 36 1007.0
20260504215520 72 209 0.0 7.0 0.00 0.00 0.00 36 1006.7
20260504215506 72 175 0.0 7.0 0.00 0.00 0.00 36 1007.0
20260504215432 72 139 0.0 7.0 0.00 0.00 0.00 35 1007.1
20260504215319 72 223 0.0 7.0 0.00 0.00 0.00 35 1007.1
20260504215311 72 170 0.0 7.0 0.00 0.00 0.00 35 1007.1
20260504215118 72 212 0.9 7.0 0.00 0.00 0.00 35 1007.2
20260504215113 72 185 0.0 7.0 0.00 0.00 0.00 35 1007.1
20260504215020 72 243 0.0 7.0 0.00 0.00 0.00 35 1006.9
20260504214903 72 196 0.9 7.0 0.00 0.00 0.00 36 1007.1
20260504214802 72 178 0.9 7.0 0.00 0.00 0.00 36 1007.1
20260504214723 72 212 0.9 7.0 0.00 0.00 0.00 35 1007.1
20260504214701 72 227 0.0 7.0 0.00 0.00 0.00 35 1007.1
20260504214615 72 175 0.0 5.2 0.00 0.00 0.00 35 1007.1
20260504214610 72 183 0.0 5.2 0.00 0.00 0.00 35 1007.1
20260504214520 72 179 0.0 5.2 0.00 0.00 0.00 35 1006.8
20260504214359 72 221 0.0 5.2 0.00 0.00 0.00 35 1007.1
20260504214300 72 197 0.0 7.0 0.00 0.00 0.00 36 1007.2
20260504214222 72 186 0.0 7.0 0.00 0.00 0.00 35 1007.2
20260504214159 72 188 0.0 7.0 0.00 0.00 0.00 35 1007.1
20260504214058 72 204 0.0 7.0 0.00 0.00 0.00 37 1007.2
20260504214020 72 190 0.0 7.0 0.00 0.00 0.00 36 1006.9
20260504214012 72 153 0.0 7.0 0.00 0.00 0.00 36 1007.1
20260504214006 72 208 0.0 7.0 0.00 0.00 0.00 36 1007.2
20260504213816 72 212 0.0 7.0 0.00 0.00 0.00 36 1007.2
20260504213811 72 206 0.0 7.0 0.00 0.00 0.00 36 1007.2
20260504213803 72 199 0.0 7.0 0.00 0.00 0.00 36 1007.2
20260504213556 72 234 0.0 7.0 0.00 0.00 0.00 35 1007.1
20260504213521 72 236 0.0 7.0 0.00 0.00 0.00 35 1006.9
20260504213456 72 250 0.0 7.0 0.00 0.00 0.00 36 1007.2
20260504213354 72 207 0.0 7.0 0.00 0.00 0.00 35 1007.1
20260504213254 72 223 0.0 6.1 0.00 0.00 0.00 35 1007.1
20260504213219 72 202 0.0 5.2 0.00 0.00 0.00 35 1007.1
20260504213154 72 187 0.0 5.2 0.00 0.00 0.00 35 1007.1
20260504213052 72 188 0.0 6.1 0.00 0.00 0.00 35 1007.1
20260504213050 73 228 1.7 5.2 0.00 0.00 0.00 36 1006.8
20260504212952 73 209 0.0 6.1 0.00 0.00 0.00 35 1007.1
20260504212852 73 178 0.0 6.1 0.00 0.00 0.00 35 1007.1
20260504212810 73 195 0.9 7.8 0.00 0.00 0.00 35 1007.1
20260504212804 73 165 0.9 7.8 0.00 0.00 0.00 35 1007.1
20260504212756 73 191 0.9 7.8 0.00 0.00 0.00 35 1007.1